GEFSNGP_prec_meanprecacc_132.txt.gz
Total_Precipitation_Accumulation
0.09 0.16 0.18 0.19 0.19 0.16 0.13 0.10 0.16 0.14 0.21 0.20 0.15 0.15 0.16 0.17 0.18 0.18 0.17 0.13 0.11 0.14 0.19 0.22 0.26 0.34 0.35 0.31 0.26 0.30 0.42 0.48 0.54 0.49 0.40 0.36 0.33 0.28 0.26 0.26 0.27 0.31 0.36 0.42
0.11 0.14 0.18 0.21 0.21 0.15 0.10 0.08 0.08 0.08 0.11 0.11 0.14 0.18 0.22 0.22 0.19 0.17 0.15 0.11 0.11 0.15 0.20 0.20 0.20 0.20 0.17 0.16 0.16 0.20 0.27 0.33 0.40 0.43 0.37 0.31 0.27 0.24 0.24 0.26 0.30 0.34 0.37 0.42
0.16 0.16 0.18 0.26 0.24 0.17 0.10 0.09 0.11 0.14 0.13 0.12 0.13 0.16 0.20 0.21 0.19 0.18 0.19 0.11 0.09 0.12 0.13 0.10 0.10 0.10 0.11 0.13 0.18 0.24 0.30 0.35 0.44 0.46 0.43 0.37 0.30 0.28 0.28 0.30 0.32 0.33 0.32 0.31
0.19 0.24 0.35 0.24 0.18 0.18 0.17 0.16 0.16 0.19 0.17 0.18 0.19 0.22 0.24 0.26 0.23 0.19 0.17 0.13 0.08 0.08 0.09 0.08 0.08 0.10 0.15 0.21 0.27 0.31 0.37 0.43 0.51 0.55 0.49 0.44 0.43 0.44 0.44 0.43 0.41 0.39 0.34 0.31
0.29 0.33 0.33 0.27 0.18 0.20 0.24 0.26 0.22 0.25 0.24 0.25 0.26 0.27 0.26 0.22 0.19 0.17 0.13 0.14 0.14 0.11 0.12 0.13 0.12 0.13 0.21 0.29 0.34 0.41 0.47 0.56 0.61 0.67 0.65 0.62 0.63 0.61 0.63 0.60 0.53 0.48 0.43 0.43
0.35 0.39 0.40 0.33 0.26 0.25 0.29 0.52 0.42 0.37 0.34 0.29 0.30 0.34 0.30 0.25 0.27 0.25 0.18 0.15 0.15 0.13 0.15 0.16 0.18 0.24 0.33 0.36 0.40 0.46 0.53 0.65 0.77 0.83 0.85 0.84 0.86 0.84 0.78 0.74 0.65 0.58 0.52 0.53
0.46 0.44 0.42 0.38 0.35 0.32 0.50 0.65 0.47 0.37 0.36 0.35 0.42 0.42 0.40 0.33 0.30 0.28 0.21 0.21 0.18 0.16 0.20 0.25 0.31 0.39 0.47 0.54 0.61 0.60 0.63 0.70 0.82 0.91 0.96 1.01 1.08 1.04 0.97 0.91 0.87 0.83 0.74 0.71
0.53 0.63 0.65 0.49 0.48 0.61 0.69 0.57 0.59 0.53 0.50 0.48 0.44 0.36 0.33 0.32 0.30 0.28 0.25 0.26 0.26 0.26 0.31 0.35 0.41 0.50 0.59 0.65 0.63 0.67 0.72 0.78 0.82 0.87 0.86 0.91 1.08 1.11 1.10 1.09 1.02 0.97 0.94 0.82
0.64 0.71 0.65 0.53 0.57 0.66 0.69 0.68 0.63 0.60 0.54 0.48 0.44 0.37 0.29 0.24 0.24 0.23 0.22 0.23 0.24 0.28 0.40 0.49 0.57 0.64 0.72 0.69 0.73 0.75 0.80 0.88 0.94 0.93 0.95 1.02 1.07 1.10 1.12 1.17 1.13 1.04 1.01 0.94
0.74 0.77 0.74 0.62 0.51 0.46 0.50 0.56 0.56 0.52 0.50 0.45 0.41 0.39 0.34 0.28 0.21 0.20 0.20 0.19 0.21 0.25 0.34 0.42 0.50 0.56 0.68 0.76 0.84 0.88 0.94 0.99 1.04 1.09 1.06 1.06 1.14 1.18 1.20 1.24 1.28 1.22 1.14 1.07
0.77 0.71 0.57 0.63 0.65 0.58 0.59 0.66 0.65 0.54 0.50 0.50 0.45 0.41 0.33 0.30 0.26 0.21 0.19 0.18 0.21 0.27 0.33 0.40 0.47 0.54 0.62 0.69 0.80 0.87 0.93 0.97 0.99 1.04 1.08 1.12 1.15 1.18 1.14 1.17 1.15 1.13 1.09 1.08
0.78 0.73 0.66 0.63 0.58 0.57 0.61 0.61 0.62 0.63 0.57 0.44 0.39 0.41 0.35 0.30 0.27 0.26 0.25 0.25 0.28 0.31 0.35 0.39 0.47 0.58 0.65 0.74 0.86 0.97 1.03 1.05 1.00 0.98 1.04 1.09 1.14 1.13 1.02 0.95 0.91 0.88 0.88 0.89
0.61 0.55 0.54 0.52 0.51 0.44 0.40 0.41 0.42 0.40 0.38 0.35 0.33 0.31 0.29 0.29 0.30 0.28 0.27 0.28 0.30 0.33 0.34 0.39 0.44 0.54 0.61 0.71 0.84 0.96 1.03 1.04 1.00 0.97 1.02 1.04 1.07 1.12 1.13 1.05 0.92 0.84 0.79 0.75
0.43 0.39 0.38 0.37 0.36 0.36 0.35 0.33 0.29 0.23 0.19 0.20 0.24 0.26 0.26 0.28 0.28 0.27 0.28 0.30 0.30 0.30 0.31 0.35 0.42 0.48 0.55 0.67 0.79 0.87 0.93 0.94 0.95 0.97 1.00 1.05 1.05 1.07 1.12 1.21 1.20 1.06 0.87 0.77
0.43 0.42 0.41 0.32 0.27 0.29 0.30 0.27 0.23 0.19 0.16 0.15 0.14 0.15 0.15 0.16 0.18 0.20 0.21 0.23 0.27 0.30 0.33 0.39 0.47 0.52 0.60 0.73 0.82 0.84 0.86 0.85 0.84 0.86 0.89 0.93 0.91 0.92 0.98 1.07 1.14 1.07 0.92 0.76
0.47 0.42 0.37 0.32 0.34 0.35 0.31 0.28 0.25 0.22 0.19 0.18 0.18 0.17 0.15 0.15 0.18 0.20 0.21 0.26 0.36 0.39 0.43 0.48 0.54 0.58 0.68 0.77 0.82 0.83 0.78 0.75 0.74 0.76 0.74 0.73 0.73 0.77 0.84 0.92 0.98 0.94 0.87 0.77
0.48 0.42 0.37 0.35 0.34 0.30 0.28 0.27 0.25 0.23 0.18 0.17 0.17 0.17 0.17 0.18 0.22 0.26 0.28 0.31 0.37 0.41 0.46 0.52 0.55 0.58 0.71 0.81 0.84 0.84 0.77 0.69 0.64 0.65 0.65 0.65 0.69 0.73 0.77 0.79 0.85 0.81 0.74 0.62
0.41 0.39 0.39 0.37 0.32 0.28 0.27 0.25 0.25 0.26 0.23 0.21 0.19 0.19 0.21 0.27 0.37 0.43 0.44 0.44 0.44 0.44 0.44 0.48 0.54 0.60 0.71 0.83 0.87 0.86 0.77 0.67 0.59 0.55 0.58 0.59 0.61 0.68 0.74 0.75 0.73 0.70 0.65 0.53
0.33 0.36 0.37 0.37 0.38 0.38 0.36 0.32 0.29 0.28 0.25 0.24 0.25 0.26 0.29 0.36 0.48 0.53 0.53 0.56 0.64 0.69 0.61 0.54 0.55 0.56 0.64 0.79 0.91 0.92 0.79 0.66 0.56 0.51 0.52 0.52 0.55 0.64 0.72 0.70 0.64 0.60 0.56 0.52
0.38 0.41 0.46 0.48 0.50 0.51 0.48 0.42 0.37 0.33 0.29 0.27 0.29 0.31 0.36 0.43 0.53 0.60 0.61 0.60 0.64 0.75 0.77 0.71 0.60 0.53 0.57 0.72 0.90 0.87 0.78 0.69 0.59 0.49 0.49 0.54 0.55 0.60 0.62 0.61 0.55 0.50 0.49 0.48
0.40 0.46 0.51 0.50 0.48 0.47 0.44 0.41 0.41 0.40 0.36 0.35 0.38 0.44 0.49 0.52 0.54 0.64 0.73 0.69 0.59 0.67 0.76 0.75 0.65 0.56 0.54 0.65 0.82 0.85 0.78 0.69 0.59 0.49 0.47 0.50 0.53 0.58 0.60 0.60 0.55 0.48 0.46 0.47
0.43 0.51 0.51 0.47 0.45 0.43 0.39 0.35 0.35 0.35 0.35 0.37 0.43 0.53 0.67 0.74 0.72 0.70 0.66 0.65 0.65 0.74 0.79 0.73 0.65 0.56 0.50 0.55 0.66 0.75 0.71 0.64 0.57 0.49 0.43 0.43 0.49 0.56 0.57 0.56 0.54 0.50 0.48 0.49
0.30 0.34 0.35 0.33 0.31 0.27 0.23 0.21 0.23 0.25 0.29 0.36 0.47 0.64 0.84 0.89 0.88 0.92 0.78 0.60 0.61 0.71 0.72 0.68 0.59 0.50 0.44 0.46 0.53 0.61 0.62 0.60 0.56 0.48 0.39 0.40 0.44 0.48 0.51 0.47 0.49 0.50 0.46 0.42
0.10 0.12 0.13 0.13 0.14 0.16 0.16 0.16 0.18 0.21 0.27 0.36 0.43 0.58 0.84 1.02 0.91 0.73 0.67 0.65 0.64 0.61 0.59 0.58 0.52 0.45 0.43 0.42 0.44 0.51 0.56 0.58 0.54 0.48 0.41 0.42 0.43 0.43 0.46 0.45 0.44 0.41 0.37 0.37
0.07 0.06 0.06 0.08 0.13 0.18 0.21 0.25 0.28 0.31 0.39 0.46 0.46 0.52 0.68 0.91 0.96 0.73 0.59 0.55 0.57 0.55 0.52 0.53 0.55 0.54 0.46 0.40 0.39 0.46 0.52 0.54 0.54 0.49 0.45 0.46 0.43 0.44 0.45 0.43 0.42 0.40 0.39 0.39
0.05 0.06 0.08 0.11 0.16 0.23 0.31 0.42 0.52 0.57 0.69 0.81 0.77 0.71 0.77 0.83 0.77 0.68 0.58 0.50 0.48 0.50 0.49 0.52 0.58 0.60 0.52 0.44 0.44 0.47 0.51 0.56 0.55 0.51 0.49 0.47 0.43 0.42 0.43 0.42 0.42 0.40 0.38 0.35
0.06 0.08 0.11 0.16 0.21 0.28 0.42 0.58 0.74 0.84 0.96 1.16 1.21 1.02 0.95 0.94 0.84 0.73 0.65 0.58 0.56 0.55 0.52 0.51 0.51 0.53 0.54 0.51 0.48 0.47 0.52 0.59 0.58 0.57 0.55 0.48 0.43 0.42 0.40 0.37 0.35 0.34 0.31 0.28

GEFSNGP_prec_meanprecacc_138.txt.gz
Total_Precipitation_Accumulation
0.09 0.16 0.19 0.20 0.20 0.16 0.14 0.10 0.16 0.15 0.21 0.21 0.15 0.15 0.16 0.17 0.18 0.18 0.17 0.13 0.11 0.14 0.20 0.23 0.28 0.36 0.37 0.33 0.28 0.33 0.46 0.52 0.57 0.52 0.43 0.39 0.35 0.30 0.27 0.28 0.30 0.36 0.41 0.46
0.11 0.14 0.18 0.21 0.21 0.16 0.11 0.08 0.08 0.09 0.11 0.11 0.14 0.18 0.22 0.22 0.19 0.17 0.15 0.11 0.11 0.15 0.20 0.21 0.20 0.21 0.18 0.17 0.19 0.23 0.31 0.37 0.44 0.46 0.40 0.33 0.29 0.27 0.27 0.29 0.34 0.38 0.42 0.46
0.16 0.16 0.18 0.26 0.26 0.19 0.11 0.09 0.12 0.14 0.13 0.12 0.13 0.17 0.21 0.22 0.19 0.18 0.19 0.11 0.09 0.12 0.14 0.11 0.11 0.12 0.13 0.16 0.21 0.28 0.34 0.39 0.47 0.49 0.45 0.39 0.32 0.32 0.32 0.34 0.35 0.36 0.35 0.34
0.20 0.25 0.36 0.25 0.19 0.19 0.19 0.17 0.17 0.19 0.17 0.18 0.20 0.23 0.24 0.27 0.24 0.19 0.18 0.13 0.08 0.09 0.10 0.10 0.10 0.12 0.17 0.23 0.31 0.35 0.41 0.47 0.55 0.59 0.53 0.47 0.46 0.47 0.48 0.46 0.44 0.42 0.38 0.34
0.31 0.34 0.34 0.28 0.19 0.21 0.25 0.28 0.24 0.27 0.25 0.27 0.27 0.28 0.27 0.23 0.20 0.18 0.13 0.15 0.14 0.11 0.13 0.15 0.15 0.16 0.23 0.31 0.38 0.46 0.51 0.59 0.65 0.71 0.68 0.64 0.65 0.65 0.67 0.64 0.56 0.51 0.46 0.46
0.38 0.43 0.42 0.34 0.26 0.26 0.33 0.57 0.45 0.40 0.36 0.32 0.33 0.36 0.32 0.26 0.28 0.26 0.19 0.16 0.15 0.14 0.16 0.18 0.20 0.27 0.36 0.40 0.44 0.52 0.59 0.71 0.82 0.87 0.89 0.88 0.90 0.89 0.84 0.79 0.69 0.62 0.57 0.58
0.50 0.48 0.45 0.39 0.36 0.36 0.59 0.77 0.54 0.40 0.38 0.38 0.44 0.45 0.43 0.35 0.34 0.30 0.23 0.22 0.18 0.17 0.21 0.27 0.33 0.42 0.51 0.58 0.65 0.66 0.70 0.78 0.90 0.98 1.03 1.08 1.16 1.12 1.04 0.97 0.93 0.89 0.81 0.79
0.58 0.67 0.68 0.51 0.49 0.66 0.76 0.63 0.65 0.57 0.52 0.51 0.47 0.39 0.36 0.34 0.34 0.31 0.27 0.28 0.27 0.27 0.33 0.37 0.44 0.53 0.62 0.68 0.67 0.72 0.77 0.84 0.89 0.94 0.93 0.97 1.15 1.20 1.18 1.16 1.08 1.03 0.99 0.87
0.69 0.75 0.68 0.55 0.60 0.70 0.73 0.71 0.67 0.63 0.58 0.50 0.46 0.40 0.31 0.28 0.27 0.26 0.24 0.26 0.26 0.31 0.42 0.51 0.61 0.69 0.78 0.75 0.78 0.79 0.84 0.93 0.99 1.00 1.03 1.10 1.16 1.19 1.22 1.26 1.22 1.11 1.08 1.00
0.79 0.82 0.78 0.66 0.56 0.51 0.57 0.60 0.59 0.55 0.54 0.49 0.45 0.41 0.37 0.31 0.25 0.24 0.23 0.22 0.23 0.27 0.36 0.45 0.55 0.64 0.76 0.84 0.89 0.92 0.98 1.03 1.10 1.16 1.14 1.14 1.24 1.29 1.31 1.35 1.39 1.33 1.25 1.17
0.84 0.77 0.63 0.71 0.73 0.66 0.68 0.72 0.69 0.58 0.54 0.54 0.48 0.46 0.39 0.34 0.30 0.25 0.23 0.22 0.23 0.29 0.35 0.42 0.50 0.58 0.66 0.74 0.84 0.91 0.97 1.01 1.04 1.08 1.13 1.17 1.20 1.25 1.21 1.25 1.23 1.21 1.17 1.17
0.89 0.80 0.73 0.73 0.70 0.65 0.68 0.67 0.67 0.69 0.70 0.55 0.45 0.49 0.46 0.39 0.33 0.31 0.29 0.29 0.31 0.33 0.36 0.41 0.49 0.61 0.68 0.77 0.90 1.01 1.08 1.09 1.04 1.01 1.07 1.12 1.17 1.17 1.08 1.00 0.97 0.93 0.93 0.94
0.68 0.62 0.63 0.63 0.60 0.52 0.49 0.50 0.49 0.52 0.53 0.49 0.43 0.40 0.39 0.38 0.37 0.34 0.32 0.31 0.34 0.36 0.38 0.41 0.46 0.56 0.63 0.74 0.87 0.99 1.07 1.07 1.02 1.00 1.05 1.09 1.11 1.15 1.17 1.08 0.96 0.88 0.83 0.80
0.49 0.46 0.47 0.44 0.44 0.47 0.47 0.44 0.38 0.34 0.33 0.33 0.37 0.38 0.36 0.36 0.36 0.35 0.35 0.34 0.33 0.33 0.34 0.38 0.45 0.51 0.58 0.70 0.81 0.89 0.95 0.97 0.97 0.99 1.02 1.07 1.09 1.10 1.16 1.26 1.24 1.10 0.92 0.82
0.47 0.47 0.47 0.36 0.33 0.37 0.38 0.33 0.29 0.27 0.29 0.31 0.28 0.25 0.23 0.22 0.22 0.22 0.23 0.24 0.29 0.31 0.34 0.40 0.48 0.53 0.62 0.75 0.84 0.86 0.87 0.87 0.87 0.89 0.92 0.96 0.95 0.98 1.04 1.13 1.19 1.12 0.97 0.81
0.52 0.49 0.43 0.36 0.39 0.42 0.37 0.33 0.29 0.26 0.25 0.27 0.28 0.23 0.18 0.17 0.19 0.20 0.22 0.26 0.36 0.40 0.43 0.49 0.55 0.59 0.68 0.78 0.83 0.85 0.80 0.77 0.77 0.78 0.77 0.75 0.76 0.81 0.88 0.96 1.01 0.98 0.90 0.80
0.55 0.49 0.44 0.40 0.38 0.34 0.33 0.31 0.27 0.24 0.20 0.20 0.21 0.18 0.17 0.19 0.23 0.26 0.28 0.31 0.37 0.42 0.47 0.53 0.56 0.59 0.72 0.82 0.85 0.85 0.78 0.70 0.66 0.67 0.67 0.67 0.71 0.75 0.79 0.81 0.86 0.82 0.75 0.63
0.49 0.46 0.45 0.41 0.35 0.31 0.30 0.28 0.26 0.27 0.25 0.22 0.20 0.19 0.21 0.27 0.37 0.44 0.45 0.44 0.44 0.44 0.44 0.49 0.54 0.60 0.72 0.84 0.88 0.86 0.78 0.68 0.60 0.57 0.59 0.61 0.62 0.69 0.75 0.76 0.74 0.71 0.66 0.54
0.41 0.43 0.43 0.42 0.40 0.40 0.38 0.34 0.31 0.30 0.28 0.25 0.26 0.27 0.30 0.37 0.48 0.53 0.53 0.56 0.64 0.69 0.62 0.54 0.55 0.56 0.64 0.80 0.92 0.93 0.80 0.66 0.57 0.52 0.53 0.53 0.56 0.65 0.72 0.71 0.64 0.60 0.56 0.53
0.47 0.49 0.52 0.53 0.53 0.53 0.50 0.45 0.39 0.35 0.30 0.28 0.30 0.32 0.36 0.43 0.53 0.60 0.61 0.60 0.64 0.75 0.77 0.71 0.60 0.54 0.58 0.72 0.91 0.88 0.79 0.69 0.60 0.50 0.50 0.54 0.56 0.60 0.63 0.62 0.56 0.51 0.49 0.49
0.49 0.53 0.57 0.55 0.51 0.49 0.46 0.44 0.44 0.42 0.37 0.36 0.39 0.44 0.50 0.53 0.55 0.64 0.74 0.69 0.60 0.67 0.76 0.75 0.66 0.57 0.56 0.67 0.84 0.87 0.80 0.71 0.60 0.50 0.48 0.51 0.54 0.58 0.61 0.61 0.56 0.49 0.47 0.48
0.52 0.60 0.58 0.51 0.48 0.45 0.41 0.38 0.38 0.38 0.37 0.39 0.44 0.53 0.68 0.75 0.72 0.70 0.66 0.65 0.65 0.74 0.79 0.73 0.65 0.56 0.50 0.56 0.66 0.76 0.72 0.65 0.58 0.50 0.44 0.44 0.50 0.57 0.58 0.57 0.55 0.51 0.49 0.50
0.39 0.42 0.41 0.37 0.34 0.30 0.25 0.25 0.27 0.27 0.30 0.37 0.47 0.64 0.84 0.89 0.88 0.93 0.78 0.60 0.61 0.71 0.72 0.68 0.59 0.50 0.44 0.46 0.53 0.61 0.62 0.61 0.56 0.48 0.40 0.41 0.44 0.48 0.51 0.48 0.49 0.50 0.47 0.43
0.18 0.18 0.16 0.15 0.16 0.18 0.18 0.18 0.20 0.22 0.28 0.36 0.43 0.58 0.84 1.02 0.91 0.73 0.67 0.65 0.64 0.61 0.59 0.58 0.52 0.45 0.43 0.42 0.44 0.51 0.56 0.58 0.54 0.48 0.41 0.42 0.43 0.43 0.47 0.45 0.44 0.42 0.37 0.37
0.15 0.12 0.10 0.11 0.16 0.20 0.22 0.25 0.28 0.31 0.39 0.46 0.47 0.52 0.68 0.91 0.96 0.73 0.59 0.55 0.57 0.55 0.52 0.53 0.55 0.54 0.46 0.40 0.39 0.46 0.52 0.55 0.54 0.50 0.45 0.46 0.43 0.45 0.45 0.43 0.42 0.40 0.39 0.40
0.10 0.10 0.11 0.13 0.18 0.24 0.32 0.42 0.53 0.58 0.69 0.81 0.77 0.71 0.77 0.83 0.78 0.68 0.58 0.50 0.48 0.51 0.49 0.52 0.58 0.60 0.52 0.44 0.44 0.48 0.51 0.56 0.56 0.53 0.50 0.47 0.44 0.43 0.44 0.42 0.42 0.41 0.39 0.36
0.09 0.10 0.13 0.17 0.22 0.30 0.43 0.59 0.75 0.84 0.97 1.16 1.21 1.02 0.95 0.94 0.84 0.73 0.65 0.59 0.56 0.55 0.52 0.51 0.51 0.53 0.54 0.51 0.48 0.47 0.52 0.59 0.59 0.58 0.56 0.49 0.43 0.42 0.40 0.38 0.36 0.35 0.33 0.30

GEFSNGP_prec_meanprecacc_144.txt.gz
Total_Precipitation_Accumulation
0.10 0.19 0.21 0.22 0.21 0.17 0.14 0.11 0.19 0.21 0.26 0.26 0.21 0.24 0.24 0.22 0.20 0.19 0.17 0.13 0.13 0.17 0.24 0.29 0.32 0.40 0.41 0.37 0.33 0.38 0.50 0.56 0.62 0.56 0.47 0.43 0.40 0.36 0.33 0.33 0.35 0.40 0.45 0.50
0.12 0.15 0.19 0.24 0.23 0.17 0.11 0.08 0.11 0.16 0.20 0.19 0.19 0.24 0.28 0.25 0.20 0.19 0.17 0.12 0.12 0.18 0.23 0.24 0.24 0.25 0.22 0.23 0.25 0.29 0.36 0.41 0.49 0.51 0.44 0.37 0.34 0.33 0.32 0.33 0.39 0.44 0.47 0.52
0.17 0.17 0.19 0.28 0.29 0.21 0.12 0.11 0.14 0.20 0.23 0.18 0.18 0.21 0.26 0.27 0.23 0.20 0.20 0.12 0.10 0.14 0.17 0.16 0.15 0.16 0.18 0.21 0.28 0.35 0.42 0.48 0.54 0.55 0.51 0.44 0.38 0.39 0.39 0.41 0.44 0.46 0.45 0.44
0.23 0.28 0.38 0.28 0.22 0.22 0.22 0.19 0.19 0.25 0.23 0.23 0.26 0.31 0.33 0.36 0.30 0.22 0.19 0.14 0.10 0.11 0.12 0.14 0.15 0.17 0.21 0.28 0.37 0.41 0.49 0.57 0.66 0.69 0.61 0.56 0.56 0.58 0.59 0.59 0.57 0.55 0.50 0.47
0.35 0.41 0.37 0.32 0.22 0.24 0.29 0.34 0.28 0.32 0.33 0.33 0.34 0.34 0.33 0.30 0.24 0.20 0.15 0.16 0.15 0.12 0.15 0.17 0.17 0.20 0.30 0.40 0.47 0.55 0.60 0.69 0.76 0.81 0.80 0.78 0.78 0.77 0.79 0.76 0.67 0.62 0.57 0.59
0.45 0.53 0.51 0.42 0.30 0.28 0.38 0.65 0.47 0.43 0.43 0.38 0.40 0.44 0.40 0.32 0.30 0.27 0.21 0.18 0.18 0.16 0.19 0.22 0.25 0.32 0.43 0.50 0.58 0.67 0.74 0.88 1.00 1.08 1.09 1.08 1.09 1.06 0.99 0.94 0.83 0.77 0.73 0.75
0.57 0.58 0.57 0.46 0.39 0.38 0.66 0.89 0.59 0.43 0.44 0.46 0.55 0.54 0.49 0.38 0.36 0.32 0.24 0.24 0.20 0.20 0.25 0.32 0.39 0.48 0.60 0.70 0.80 0.78 0.83 0.96 1.14 1.22 1.27 1.30 1.36 1.31 1.24 1.16 1.11 1.06 0.99 0.97
0.67 0.77 0.82 0.60 0.55 0.76 0.89 0.73 0.71 0.62 0.56 0.55 0.54 0.45 0.40 0.36 0.35 0.33 0.29 0.31 0.29 0.29 0.36 0.42 0.52 0.60 0.70 0.78 0.79 0.82 0.88 0.98 1.08 1.15 1.15 1.20 1.37 1.41 1.41 1.38 1.30 1.25 1.21 1.08
0.79 0.86 0.76 0.62 0.68 0.77 0.80 0.79 0.75 0.70 0.62 0.54 0.51 0.45 0.35 0.30 0.29 0.27 0.27 0.29 0.29 0.33 0.45 0.55 0.66 0.76 0.86 0.83 0.87 0.89 0.94 1.06 1.14 1.17 1.21 1.29 1.34 1.36 1.39 1.43 1.42 1.33 1.30 1.20
0.87 0.89 0.83 0.71 0.62 0.57 0.61 0.64 0.63 0.59 0.57 0.54 0.50 0.46 0.41 0.33 0.27 0.26 0.26 0.25 0.27 0.32 0.41 0.50 0.59 0.68 0.82 0.92 0.99 1.03 1.07 1.13 1.21 1.28 1.27 1.28 1.38 1.45 1.48 1.53 1.57 1.51 1.44 1.37
0.93 0.86 0.71 0.78 0.79 0.71 0.72 0.76 0.73 0.63 0.60 0.60 0.52 0.49 0.42 0.37 0.33 0.29 0.27 0.26 0.28 0.34 0.41 0.47 0.54 0.62 0.71 0.80 0.92 1.01 1.07 1.10 1.13 1.19 1.25 1.32 1.38 1.43 1.39 1.44 1.41 1.38 1.33 1.32
0.99 0.90 0.84 0.85 0.80 0.72 0.75 0.71 0.71 0.74 0.76 0.60 0.50 0.52 0.49 0.42 0.35 0.34 0.32 0.33 0.36 0.38 0.40 0.44 0.52 0.63 0.72 0.82 0.96 1.09 1.18 1.18 1.12 1.10 1.17 1.23 1.29 1.29 1.21 1.12 1.08 1.03 1.02 1.02
0.75 0.67 0.70 0.72 0.69 0.59 0.55 0.55 0.54 0.57 0.59 0.54 0.49 0.44 0.42 0.41 0.40 0.36 0.34 0.34 0.38 0.40 0.41 0.45 0.49 0.58 0.66 0.77 0.91 1.04 1.12 1.13 1.09 1.07 1.13 1.16 1.20 1.24 1.26 1.16 1.03 0.94 0.89 0.86
0.54 0.50 0.52 0.51 0.52 0.53 0.51 0.49 0.43 0.40 0.40 0.39 0.43 0.43 0.39 0.41 0.41 0.40 0.40 0.38 0.36 0.36 0.37 0.41 0.48 0.53 0.61 0.72 0.84 0.93 0.99 1.02 1.04 1.07 1.11 1.16 1.19 1.22 1.28 1.35 1.32 1.16 0.97 0.87
0.51 0.50 0.50 0.40 0.38 0.41 0.41 0.37 0.33 0.31 0.34 0.39 0.36 0.32 0.28 0.27 0.29 0.29 0.30 0.30 0.33 0.34 0.37 0.42 0.50 0.55 0.63 0.76 0.86 0.89 0.90 0.91 0.91 0.95 0.98 1.03 1.05 1.10 1.17 1.23 1.26 1.17 1.03 0.88
0.57 0.53 0.47 0.40 0.43 0.45 0.41 0.38 0.33 0.30 0.30 0.34 0.35 0.30 0.24 0.22 0.24 0.25 0.25 0.29 0.39 0.43 0.47 0.52 0.58 0.61 0.71 0.80 0.85 0.86 0.82 0.80 0.80 0.83 0.82 0.81 0.82 0.89 0.97 1.04 1.08 1.03 0.95 0.84
0.60 0.56 0.49 0.45 0.43 0.40 0.39 0.37 0.32 0.29 0.25 0.25 0.25 0.21 0.20 0.22 0.25 0.28 0.30 0.32 0.38 0.42 0.48 0.55 0.57 0.60 0.73 0.84 0.87 0.87 0.80 0.73 0.69 0.70 0.70 0.71 0.76 0.82 0.86 0.89 0.94 0.90 0.82 0.69
0.55 0.52 0.50 0.46 0.42 0.37 0.36 0.33 0.31 0.31 0.28 0.24 0.22 0.20 0.22 0.28 0.38 0.44 0.45 0.45 0.45 0.44 0.45 0.50 0.55 0.61 0.74 0.86 0.89 0.89 0.80 0.70 0.63 0.60 0.63 0.65 0.66 0.73 0.79 0.80 0.78 0.75 0.69 0.56
0.46 0.47 0.49 0.50 0.49 0.47 0.44 0.39 0.35 0.32 0.29 0.26 0.27 0.28 0.30 0.37 0.49 0.54 0.54 0.57 0.65 0.70 0.62 0.55 0.55 0.56 0.65 0.81 0.93 0.95 0.83 0.70 0.61 0.56 0.57 0.57 0.59 0.68 0.75 0.73 0.66 0.61 0.57 0.54
0.53 0.55 0.59 0.61 0.59 0.59 0.55 0.48 0.41 0.36 0.32 0.29 0.30 0.33 0.37 0.43 0.54 0.60 0.62 0.61 0.66 0.76 0.77 0.71 0.60 0.54 0.58 0.73 0.91 0.89 0.81 0.72 0.63 0.53 0.54 0.58 0.61 0.66 0.69 0.68 0.60 0.55 0.52 0.51
0.58 0.62 0.65 0.61 0.57 0.55 0.50 0.47 0.46 0.44 0.39 0.37 0.39 0.45 0.51 0.54 0.56 0.65 0.75 0.70 0.60 0.67 0.76 0.75 0.66 0.57 0.56 0.67 0.84 0.87 0.80 0.72 0.62 0.52 0.50 0.53 0.57 0.62 0.65 0.66 0.62 0.55 0.53 0.53
0.63 0.69 0.66 0.58 0.55 0.51 0.44 0.40 0.40 0.40 0.39 0.40 0.45 0.54 0.69 0.76 0.73 0.71 0.66 0.66 0.65 0.74 0.79 0.73 0.65 0.56 0.50 0.56 0.66 0.76 0.72 0.66 0.60 0.53 0.46 0.47 0.54 0.61 0.62 0.62 0.60 0.56 0.55 0.56
0.51 0.52 0.49 0.45 0.40 0.35 0.28 0.26 0.28 0.30 0.33 0.40 0.49 0.65 0.86 0.90 0.89 0.93 0.78 0.60 0.61 0.71 0.72 0.68 0.59 0.50 0.44 0.46 0.53 0.61 0.62 0.61 0.56 0.49 0.41 0.42 0.45 0.50 0.53 0.49 0.51 0.52 0.49 0.44
0.27 0.25 0.23 0.22 0.22 0.23 0.21 0.20 0.21 0.24 0.31 0.38 0.45 0.60 0.85 1.02 0.91 0.73 0.68 0.65 0.64 0.61 0.59 0.58 0.52 0.45 0.43 0.42 0.44 0.51 0.56 0.58 0.54 0.48 0.42 0.42 0.43 0.44 0.47 0.46 0.45 0.42 0.37 0.37
0.21 0.17 0.14 0.16 0.20 0.24 0.26 0.27 0.30 0.33 0.41 0.48 0.48 0.53 0.68 0.91 0.96 0.73 0.59 0.56 0.57 0.55 0.52 0.53 0.55 0.54 0.46 0.40 0.39 0.46 0.52 0.55 0.55 0.50 0.45 0.46 0.43 0.45 0.46 0.44 0.43 0.40 0.39 0.40
0.18 0.16 0.16 0.17 0.21 0.27 0.35 0.45 0.55 0.59 0.71 0.83 0.78 0.71 0.77 0.83 0.78 0.68 0.58 0.50 0.49 0.51 0.49 0.52 0.58 0.60 0.52 0.44 0.44 0.48 0.51 0.56 0.56 0.53 0.50 0.48 0.44 0.43 0.44 0.43 0.43 0.42 0.39 0.36
0.20 0.18 0.19 0.22 0.27 0.34 0.47 0.63 0.77 0.86 0.99 1.18 1.22 1.03 0.95 0.94 0.84 0.73 0.66 0.59 0.57 0.55 0.53 0.51 0.51 0.53 0.54 0.51 0.48 0.47 0.52 0.59 0.59 0.59 0.56 0.49 0.44 0.42 0.41 0.38 0.36 0.36 0.33 0.30

GEFSNGP_prec_meanprecacc_150.txt.gz
Total_Precipitation_Accumulation
0.10 0.20 0.23 0.23 0.22 0.18 0.14 0.12 0.21 0.22 0.29 0.34 0.29 0.33 0.39 0.52 0.54 0.56 0.44 0.31 0.30 0.28 0.34 0.41 0.41 0.47 0.46 0.42 0.37 0.44 0.57 0.63 0.71 0.65 0.54 0.50 0.46 0.41 0.39 0.39 0.40 0.45 0.50 0.54
0.12 0.16 0.21 0.26 0.24 0.18 0.13 0.11 0.14 0.19 0.25 0.27 0.28 0.37 0.39 0.40 0.37 0.37 0.32 0.23 0.21 0.26 0.30 0.29 0.28 0.29 0.25 0.25 0.29 0.35 0.42 0.49 0.58 0.65 0.56 0.46 0.42 0.40 0.38 0.40 0.45 0.50 0.54 0.58
0.19 0.19 0.21 0.30 0.30 0.22 0.14 0.13 0.18 0.24 0.29 0.27 0.24 0.28 0.32 0.33 0.33 0.35 0.33 0.21 0.17 0.22 0.26 0.21 0.20 0.20 0.21 0.24 0.32 0.40 0.49 0.57 0.65 0.69 0.66 0.58 0.48 0.48 0.47 0.50 0.54 0.55 0.54 0.53
0.25 0.32 0.42 0.30 0.25 0.25 0.25 0.23 0.24 0.31 0.28 0.30 0.32 0.37 0.39 0.41 0.37 0.31 0.27 0.21 0.16 0.17 0.19 0.21 0.20 0.22 0.26 0.32 0.42 0.49 0.57 0.67 0.75 0.79 0.75 0.72 0.70 0.71 0.70 0.70 0.70 0.68 0.64 0.60
0.39 0.45 0.41 0.36 0.25 0.28 0.34 0.46 0.44 0.49 0.45 0.40 0.41 0.41 0.40 0.36 0.32 0.31 0.24 0.22 0.20 0.18 0.20 0.23 0.24 0.27 0.37 0.47 0.55 0.65 0.72 0.79 0.85 0.93 0.94 0.95 0.97 0.95 0.96 0.94 0.84 0.76 0.70 0.71
0.49 0.58 0.56 0.49 0.35 0.33 0.44 0.80 0.64 0.57 0.55 0.48 0.48 0.50 0.48 0.43 0.39 0.35 0.28 0.25 0.24 0.22 0.25 0.30 0.36 0.41 0.53 0.62 0.69 0.78 0.86 1.00 1.12 1.23 1.24 1.23 1.27 1.25 1.19 1.14 1.04 1.01 0.93 0.91
0.62 0.63 0.64 0.53 0.46 0.45 0.78 1.05 0.74 0.58 0.55 0.58 0.65 0.61 0.55 0.45 0.44 0.39 0.31 0.30 0.27 0.26 0.32 0.41 0.49 0.60 0.74 0.87 0.97 0.93 0.98 1.13 1.31 1.41 1.47 1.49 1.54 1.54 1.47 1.42 1.39 1.33 1.22 1.17
0.73 0.83 0.89 0.65 0.61 0.85 0.99 0.83 0.82 0.76 0.70 0.67 0.64 0.55 0.46 0.42 0.41 0.38 0.34 0.36 0.35 0.35 0.42 0.51 0.63 0.73 0.85 0.92 0.93 0.96 1.03 1.16 1.28 1.38 1.40 1.47 1.62 1.65 1.65 1.63 1.56 1.50 1.44 1.30
0.87 0.94 0.83 0.68 0.74 0.83 0.87 0.89 0.85 0.80 0.73 0.64 0.62 0.54 0.43 0.35 0.34 0.35 0.33 0.35 0.36 0.40 0.53 0.65 0.79 0.88 0.96 0.93 1.00 1.02 1.08 1.22 1.36 1.43 1.47 1.53 1.56 1.55 1.58 1.61 1.58 1.50 1.48 1.40
0.95 0.98 0.91 0.80 0.68 0.62 0.66 0.70 0.70 0.67 0.68 0.67 0.65 0.58 0.48 0.37 0.31 0.31 0.31 0.29 0.31 0.36 0.47 0.58 0.69 0.78 0.90 0.99 1.07 1.12 1.18 1.25 1.36 1.47 1.49 1.49 1.58 1.65 1.69 1.76 1.81 1.73 1.64 1.56
1.04 0.97 0.81 0.88 0.87 0.77 0.77 0.81 0.78 0.68 0.66 0.67 0.63 0.58 0.47 0.41 0.36 0.32 0.30 0.29 0.31 0.37 0.44 0.51 0.58 0.66 0.74 0.83 0.97 1.07 1.14 1.18 1.24 1.31 1.40 1.48 1.54 1.60 1.57 1.61 1.58 1.54 1.49 1.49
1.10 1.01 0.95 0.96 0.88 0.78 0.80 0.77 0.80 0.82 0.81 0.64 0.53 0.55 0.51 0.44 0.38 0.36 0.35 0.35 0.38 0.40 0.42 0.47 0.54 0.66 0.74 0.83 0.98 1.13 1.23 1.25 1.19 1.16 1.23 1.29 1.36 1.35 1.28 1.21 1.18 1.12 1.11 1.11
0.87 0.78 0.79 0.82 0.78 0.64 0.60 0.61 0.60 0.62 0.62 0.57 0.50 0.46 0.44 0.43 0.41 0.38 0.36 0.36 0.40 0.42 0.43 0.46 0.51 0.61 0.69 0.80 0.93 1.06 1.14 1.16 1.14 1.13 1.19 1.22 1.25 1.29 1.32 1.23 1.10 1.01 0.96 0.93
0.67 0.61 0.59 0.58 0.59 0.59 0.56 0.53 0.46 0.42 0.42 0.42 0.45 0.45 0.41 0.42 0.43 0.42 0.41 0.40 0.38 0.38 0.39 0.42 0.49 0.55 0.63 0.74 0.85 0.94 1.00 1.03 1.06 1.09 1.14 1.22 1.27 1.34 1.44 1.52 1.45 1.27 1.06 0.95
0.64 0.58 0.55 0.45 0.43 0.45 0.43 0.38 0.34 0.32 0.36 0.40 0.37 0.34 0.29 0.29 0.30 0.30 0.31 0.32 0.34 0.36 0.40 0.44 0.50 0.56 0.64 0.77 0.87 0.89 0.91 0.92 0.93 0.96 1.00 1.06 1.09 1.16 1.26 1.35 1.39 1.29 1.14 1.00
0.68 0.62 0.52 0.43 0.45 0.47 0.42 0.39 0.34 0.31 0.31 0.35 0.37 0.33 0.26 0.24 0.25 0.26 0.26 0.30 0.40 0.45 0.49 0.55 0.60 0.63 0.72 0.81 0.86 0.87 0.83 0.81 0.82 0.85 0.85 0.84 0.87 0.94 1.04 1.14 1.19 1.13 1.04 0.94
0.69 0.66 0.55 0.48 0.45 0.42 0.40 0.38 0.33 0.30 0.26 0.26 0.26 0.23 0.22 0.24 0.27 0.29 0.32 0.34 0.39 0.44 0.50 0.57 0.60 0.63 0.76 0.86 0.89 0.88 0.81 0.74 0.70 0.72 0.73 0.74 0.80 0.85 0.89 0.92 0.97 0.94 0.87 0.75
0.62 0.60 0.54 0.49 0.44 0.39 0.38 0.35 0.33 0.33 0.29 0.26 0.23 0.22 0.24 0.30 0.40 0.46 0.46 0.46 0.46 0.46 0.46 0.51 0.56 0.63 0.75 0.86 0.90 0.89 0.81 0.71 0.64 0.62 0.65 0.67 0.69 0.76 0.82 0.82 0.80 0.77 0.71 0.58
0.53 0.53 0.53 0.52 0.52 0.52 0.49 0.42 0.37 0.34 0.31 0.28 0.28 0.29 0.32 0.39 0.50 0.55 0.54 0.57 0.65 0.71 0.63 0.55 0.56 0.56 0.65 0.81 0.93 0.95 0.84 0.71 0.61 0.57 0.58 0.60 0.63 0.72 0.79 0.76 0.69 0.64 0.59 0.55
0.58 0.61 0.64 0.64 0.64 0.64 0.59 0.52 0.45 0.39 0.33 0.30 0.31 0.33 0.38 0.45 0.55 0.61 0.62 0.61 0.66 0.76 0.77 0.71 0.60 0.54 0.58 0.73 0.91 0.89 0.81 0.72 0.63 0.54 0.55 0.60 0.63 0.68 0.72 0.72 0.66 0.60 0.57 0.55
0.64 0.69 0.71 0.66 0.62 0.59 0.55 0.52 0.50 0.46 0.40 0.37 0.40 0.46 0.52 0.55 0.57 0.65 0.75 0.70 0.61 0.67 0.76 0.75 0.66 0.57 0.56 0.67 0.84 0.87 0.80 0.72 0.62 0.52 0.51 0.55 0.58 0.63 0.67 0.68 0.65 0.59 0.58 0.59
0.73 0.78 0.74 0.65 0.60 0.56 0.50 0.46 0.44 0.42 0.40 0.41 0.45 0.55 0.70 0.77 0.74 0.71 0.66 0.66 0.65 0.74 0.79 0.73 0.65 0.56 0.50 0.56 0.66 0.76 0.72 0.66 0.60 0.53 0.46 0.47 0.54 0.61 0.63 0.62 0.60 0.57 0.56 0.58
0.62 0.64 0.61 0.54 0.47 0.40 0.32 0.31 0.33 0.34 0.36 0.41 0.50 0.66 0.87 0.91 0.89 0.93 0.78 0.60 0.61 0.71 0.72 0.68 0.59 0.50 0.44 0.46 0.53 0.61 0.62 0.61 0.56 0.49 0.41 0.42 0.45 0.50 0.53 0.50 0.51 0.53 0.49 0.45
0.36 0.35 0.32 0.30 0.28 0.27 0.26 0.25 0.27 0.28 0.33 0.39 0.45 0.60 0.86 1.02 0.91 0.73 0.68 0.65 0.64 0.61 0.59 0.58 0.52 0.45 0.43 0.42 0.44 0.51 0.56 0.58 0.54 0.48 0.42 0.42 0.43 0.44 0.47 0.46 0.45 0.42 0.37 0.37
0.27 0.23 0.20 0.22 0.26 0.29 0.30 0.32 0.34 0.36 0.43 0.49 0.49 0.54 0.69 0.92 0.96 0.73 0.59 0.56 0.57 0.55 0.52 0.53 0.55 0.54 0.46 0.40 0.39 0.46 0.52 0.55 0.55 0.50 0.45 0.46 0.43 0.45 0.46 0.44 0.43 0.40 0.39 0.40
0.23 0.21 0.21 0.22 0.25 0.31 0.38 0.48 0.58 0.62 0.73 0.84 0.79 0.72 0.78 0.83 0.78 0.68 0.58 0.51 0.49 0.51 0.49 0.52 0.58 0.60 0.52 0.44 0.44 0.48 0.51 0.56 0.56 0.53 0.50 0.48 0.44 0.43 0.44 0.43 0.43 0.42 0.39 0.36
0.25 0.22 0.23 0.26 0.30 0.37 0.50 0.67 0.82 0.90 1.02 1.20 1.23 1.03 0.96 0.95 0.84 0.74 0.66 0.60 0.57 0.56 0.53 0.51 0.51 0.53 0.54 0.51 0.48 0.47 0.52 0.59 0.60 0.59 0.56 0.49 0.44 0.42 0.41 0.38 0.36 0.36 0.33 0.30

GEFSNGP_prec_meanprecacc_156.txt.gz
Total_Precipitation_Accumulation
0.11 0.21 0.23 0.23 0.22 0.18 0.14 0.12 0.21 0.23 0.29 0.34 0.29 0.35 0.41 0.53 0.55 0.58 0.47 0.36 0.38 0.35 0.40 0.47 0.47 0.54 0.51 0.46 0.42 0.49 0.64 0.71 0.79 0.75 0.66 0.62 0.59 0.53 0.50 0.53 0.53 0.59 0.65 0.69
0.13 0.17 0.22 0.26 0.24 0.18 0.13 0.11 0.14 0.19 0.25 0.28 0.29 0.38 0.40 0.41 0.38 0.38 0.34 0.26 0.25 0.30 0.34 0.35 0.34 0.35 0.30 0.29 0.33 0.40 0.48 0.54 0.64 0.72 0.67 0.59 0.56 0.54 0.51 0.54 0.57 0.61 0.64 0.69
0.19 0.19 0.21 0.31 0.31 0.23 0.14 0.13 0.18 0.24 0.30 0.28 0.25 0.29 0.34 0.35 0.34 0.37 0.35 0.23 0.19 0.25 0.29 0.26 0.25 0.25 0.27 0.29 0.36 0.45 0.53 0.61 0.69 0.76 0.74 0.70 0.63 0.64 0.61 0.63 0.65 0.65 0.64 0.64
0.25 0.33 0.43 0.32 0.27 0.26 0.26 0.24 0.24 0.32 0.29 0.31 0.33 0.38 0.40 0.42 0.38 0.32 0.28 0.22 0.18 0.19 0.22 0.25 0.27 0.28 0.31 0.37 0.46 0.53 0.61 0.70 0.80 0.85 0.82 0.81 0.83 0.86 0.86 0.85 0.82 0.79 0.74 0.70
0.40 0.45 0.42 0.37 0.27 0.29 0.35 0.47 0.45 0.50 0.46 0.41 0.42 0.42 0.42 0.38 0.33 0.32 0.25 0.24 0.23 0.21 0.26 0.32 0.35 0.35 0.44 0.52 0.61 0.70 0.76 0.83 0.91 0.99 1.01 1.01 1.04 1.04 1.07 1.08 0.97 0.88 0.82 0.81
0.50 0.58 0.57 0.50 0.38 0.35 0.45 0.82 0.65 0.58 0.56 0.50 0.49 0.52 0.50 0.45 0.42 0.38 0.31 0.28 0.29 0.28 0.35 0.42 0.47 0.52 0.61 0.68 0.74 0.84 0.91 1.05 1.20 1.31 1.33 1.31 1.36 1.34 1.28 1.22 1.12 1.10 1.05 1.03
0.63 0.63 0.64 0.54 0.49 0.49 0.80 1.06 0.76 0.61 0.57 0.59 0.67 0.64 0.58 0.48 0.47 0.42 0.34 0.35 0.33 0.33 0.39 0.51 0.59 0.70 0.82 0.95 1.03 0.98 1.04 1.19 1.39 1.52 1.59 1.63 1.71 1.68 1.61 1.56 1.53 1.48 1.36 1.32
0.74 0.83 0.89 0.66 0.63 0.88 1.02 0.84 0.84 0.80 0.73 0.70 0.67 0.59 0.50 0.46 0.44 0.41 0.38 0.40 0.40 0.39 0.48 0.59 0.73 0.83 0.94 1.02 1.00 1.01 1.08 1.21 1.36 1.50 1.54 1.63 1.81 1.85 1.84 1.82 1.75 1.70 1.64 1.49
0.89 0.95 0.84 0.69 0.76 0.85 0.89 0.90 0.87 0.85 0.78 0.70 0.67 0.58 0.47 0.41 0.39 0.39 0.37 0.39 0.40 0.44 0.58 0.72 0.89 1.00 1.08 1.02 1.06 1.09 1.13 1.27 1.42 1.51 1.57 1.67 1.71 1.71 1.72 1.76 1.74 1.66 1.64 1.55
0.98 1.01 0.94 0.82 0.71 0.64 0.69 0.73 0.73 0.70 0.71 0.72 0.71 0.64 0.54 0.44 0.36 0.36 0.36 0.34 0.37 0.42 0.52 0.62 0.74 0.86 1.01 1.08 1.14 1.19 1.26 1.32 1.41 1.52 1.55 1.57 1.68 1.76 1.82 1.90 1.95 1.85 1.74 1.65
1.08 1.00 0.85 0.92 0.90 0.80 0.81 0.85 0.81 0.72 0.68 0.70 0.68 0.64 0.55 0.48 0.42 0.37 0.34 0.33 0.36 0.43 0.50 0.56 0.63 0.71 0.80 0.89 1.02 1.13 1.20 1.26 1.31 1.37 1.45 1.54 1.61 1.67 1.66 1.71 1.69 1.64 1.57 1.56
1.14 1.05 0.99 1.00 0.92 0.82 0.84 0.80 0.83 0.85 0.83 0.66 0.56 0.59 0.55 0.49 0.41 0.39 0.38 0.38 0.41 0.43 0.47 0.52 0.58 0.70 0.77 0.86 1.01 1.16 1.25 1.28 1.24 1.23 1.30 1.36 1.43 1.43 1.37 1.28 1.25 1.19 1.18 1.19
0.90 0.83 0.84 0.88 0.85 0.71 0.66 0.65 0.63 0.64 0.64 0.58 0.52 0.48 0.46 0.44 0.43 0.40 0.38 0.38 0.42 0.45 0.47 0.50 0.53 0.63 0.72 0.82 0.94 1.07 1.16 1.17 1.16 1.15 1.23 1.27 1.30 1.34 1.37 1.28 1.15 1.06 1.02 0.99
0.71 0.65 0.65 0.66 0.67 0.67 0.64 0.57 0.49 0.44 0.44 0.43 0.46 0.47 0.43 0.44 0.44 0.44 0.44 0.42 0.39 0.40 0.41 0.44 0.50 0.56 0.65 0.75 0.86 0.94 1.01 1.04 1.07 1.10 1.16 1.24 1.29 1.37 1.47 1.55 1.48 1.30 1.11 1.00
0.70 0.62 0.60 0.51 0.50 0.52 0.50 0.43 0.36 0.34 0.37 0.41 0.38 0.34 0.31 0.30 0.31 0.32 0.33 0.34 0.35 0.37 0.42 0.47 0.52 0.57 0.66 0.79 0.88 0.90 0.92 0.93 0.93 0.96 1.00 1.06 1.09 1.17 1.27 1.37 1.41 1.32 1.17 1.04
0.75 0.69 0.57 0.47 0.49 0.51 0.46 0.42 0.36 0.32 0.32 0.36 0.38 0.33 0.28 0.25 0.27 0.27 0.27 0.32 0.41 0.46 0.51 0.57 0.62 0.64 0.73 0.83 0.88 0.90 0.85 0.83 0.83 0.85 0.85 0.85 0.87 0.95 1.04 1.15 1.20 1.15 1.06 0.96
0.74 0.74 0.61 0.52 0.49 0.45 0.44 0.40 0.34 0.30 0.26 0.26 0.27 0.24 0.23 0.25 0.28 0.31 0.32 0.35 0.40 0.45 0.52 0.59 0.62 0.64 0.76 0.87 0.91 0.91 0.85 0.77 0.72 0.73 0.73 0.75 0.80 0.85 0.89 0.93 0.99 0.95 0.88 0.76
0.66 0.65 0.60 0.54 0.48 0.42 0.42 0.37 0.34 0.34 0.30 0.27 0.24 0.22 0.25 0.32 0.42 0.47 0.47 0.46 0.47 0.46 0.47 0.52 0.57 0.64 0.77 0.90 0.93 0.92 0.83 0.74 0.66 0.63 0.66 0.68 0.69 0.76 0.82 0.83 0.80 0.77 0.72 0.59
0.58 0.57 0.57 0.57 0.56 0.54 0.51 0.43 0.38 0.35 0.32 0.29 0.29 0.30 0.34 0.41 0.52 0.56 0.55 0.58 0.66 0.71 0.63 0.56 0.56 0.57 0.67 0.83 0.95 0.96 0.85 0.72 0.62 0.57 0.59 0.60 0.63 0.72 0.79 0.77 0.69 0.64 0.60 0.56
0.63 0.66 0.69 0.69 0.68 0.67 0.61 0.53 0.46 0.40 0.34 0.31 0.32 0.35 0.39 0.46 0.56 0.63 0.63 0.62 0.66 0.76 0.77 0.71 0.61 0.55 0.59 0.73 0.92 0.90 0.81 0.72 0.63 0.54 0.55 0.60 0.63 0.69 0.73 0.72 0.66 0.61 0.57 0.55
0.69 0.74 0.75 0.69 0.65 0.61 0.57 0.53 0.51 0.47 0.41 0.38 0.41 0.47 0.53 0.56 0.57 0.66 0.76 0.71 0.61 0.67 0.76 0.75 0.66 0.57 0.56 0.67 0.84 0.87 0.80 0.72 0.62 0.52 0.51 0.55 0.58 0.63 0.67 0.68 0.65 0.59 0.58 0.59
0.77 0.82 0.77 0.67 0.62 0.58 0.51 0.47 0.45 0.42 0.41 0.42 0.47 0.56 0.70 0.78 0.74 0.71 0.67 0.66 0.65 0.74 0.79 0.73 0.65 0.56 0.50 0.56 0.67 0.76 0.73 0.66 0.60 0.53 0.46 0.47 0.54 0.61 0.63 0.62 0.60 0.57 0.56 0.58
0.68 0.68 0.64 0.56 0.49 0.42 0.34 0.32 0.34 0.35 0.37 0.42 0.52 0.67 0.88 0.91 0.89 0.93 0.79 0.60 0.61 0.71 0.72 0.68 0.59 0.50 0.44 0.46 0.53 0.61 0.62 0.61 0.56 0.49 0.41 0.42 0.45 0.50 0.53 0.50 0.51 0.53 0.49 0.45
0.42 0.39 0.36 0.33 0.31 0.29 0.28 0.26 0.28 0.30 0.34 0.41 0.47 0.61 0.86 1.02 0.91 0.73 0.68 0.65 0.64 0.61 0.59 0.59 0.52 0.45 0.43 0.42 0.44 0.51 0.56 0.58 0.54 0.48 0.42 0.42 0.43 0.44 0.47 0.46 0.45 0.42 0.38 0.38
0.33 0.28 0.24 0.26 0.29 0.33 0.34 0.36 0.38 0.39 0.46 0.52 0.51 0.55 0.70 0.92 0.96 0.73 0.59 0.56 0.57 0.55 0.52 0.54 0.55 0.54 0.46 0.40 0.39 0.46 0.52 0.55 0.55 0.50 0.45 0.46 0.43 0.45 0.46 0.44 0.43 0.40 0.39 0.40
0.31 0.27 0.26 0.27 0.29 0.35 0.42 0.53 0.64 0.66 0.76 0.87 0.81 0.73 0.79 0.84 0.78 0.68 0.59 0.51 0.49 0.51 0.49 0.52 0.58 0.60 0.52 0.44 0.44 0.48 0.51 0.56 0.56 0.53 0.50 0.48 0.44 0.43 0.44 0.43 0.43 0.42 0.39 0.36
0.34 0.29 0.29 0.31 0.34 0.41 0.54 0.71 0.86 0.93 1.04 1.22 1.25 1.05 0.96 0.95 0.85 0.74 0.66 0.60 0.58 0.56 0.54 0.52 0.52 0.53 0.54 0.51 0.48 0.47 0.52 0.59 0.60 0.59 0.56 0.49 0.44 0.42 0.41 0.38 0.36 0.36 0.33 0.30

GEFSNGP_prec_meanprecacc_162.txt.gz
Total_Precipitation_Accumulation
0.11 0.21 0.23 0.23 0.22 0.18 0.14 0.12 0.21 0.23 0.29 0.34 0.29 0.35 0.41 0.53 0.55 0.58 0.47 0.36 0.41 0.41 0.44 0.50 0.49 0.56 0.53 0.48 0.46 0.54 0.70 0.78 0.87 0.84 0.75 0.70 0.68 0.64 0.61 0.66 0.68 0.73 0.78 0.82
0.13 0.17 0.22 0.26 0.25 0.18 0.13 0.11 0.14 0.19 0.25 0.28 0.29 0.38 0.40 0.41 0.38 0.39 0.34 0.26 0.28 0.39 0.45 0.41 0.37 0.38 0.33 0.32 0.37 0.45 0.54 0.61 0.73 0.82 0.77 0.68 0.66 0.67 0.65 0.70 0.74 0.77 0.79 0.83
0.20 0.19 0.21 0.31 0.31 0.23 0.14 0.13 0.18 0.25 0.30 0.28 0.25 0.29 0.34 0.35 0.34 0.37 0.35 0.23 0.20 0.26 0.34 0.32 0.29 0.26 0.29 0.32 0.39 0.47 0.56 0.65 0.75 0.83 0.83 0.78 0.72 0.75 0.75 0.82 0.87 0.85 0.82 0.80
0.26 0.34 0.44 0.32 0.27 0.26 0.26 0.24 0.24 0.32 0.29 0.31 0.33 0.38 0.40 0.42 0.38 0.32 0.28 0.23 0.18 0.19 0.23 0.26 0.29 0.29 0.33 0.39 0.49 0.56 0.64 0.74 0.84 0.90 0.89 0.88 0.90 0.95 1.00 1.03 1.03 1.00 0.94 0.87
0.41 0.47 0.43 0.38 0.27 0.29 0.35 0.47 0.45 0.50 0.46 0.41 0.42 0.43 0.42 0.38 0.35 0.34 0.27 0.25 0.24 0.22 0.27 0.33 0.36 0.36 0.45 0.54 0.64 0.73 0.79 0.86 0.94 1.03 1.07 1.09 1.12 1.13 1.17 1.21 1.15 1.07 1.00 0.99
0.51 0.59 0.57 0.50 0.38 0.35 0.46 0.83 0.66 0.59 0.56 0.50 0.50 0.53 0.50 0.46 0.44 0.39 0.32 0.30 0.30 0.30 0.37 0.44 0.51 0.55 0.64 0.70 0.77 0.87 0.93 1.07 1.23 1.36 1.38 1.36 1.43 1.42 1.36 1.30 1.23 1.24 1.20 1.17
0.64 0.64 0.65 0.54 0.50 0.50 0.83 1.07 0.77 0.61 0.57 0.60 0.68 0.65 0.59 0.49 0.48 0.43 0.36 0.36 0.34 0.34 0.41 0.55 0.65 0.74 0.85 0.97 1.06 1.01 1.07 1.22 1.44 1.59 1.66 1.70 1.77 1.75 1.68 1.63 1.61 1.57 1.48 1.45
0.76 0.85 0.90 0.66 0.64 0.90 1.04 0.85 0.85 0.80 0.74 0.71 0.68 0.60 0.51 0.47 0.46 0.42 0.39 0.43 0.42 0.41 0.51 0.67 0.79 0.86 0.97 1.04 1.03 1.05 1.12 1.26 1.40 1.55 1.60 1.68 1.86 1.91 1.90 1.88 1.82 1.78 1.74 1.62
0.90 0.96 0.85 0.70 0.77 0.87 0.90 0.91 0.88 0.85 0.79 0.71 0.68 0.59 0.48 0.43 0.41 0.40 0.39 0.42 0.43 0.48 0.65 0.81 0.95 1.04 1.11 1.04 1.09 1.13 1.20 1.33 1.47 1.55 1.62 1.70 1.75 1.75 1.77 1.83 1.82 1.75 1.74 1.67
1.00 1.03 0.94 0.83 0.73 0.66 0.70 0.75 0.75 0.72 0.73 0.73 0.73 0.67 0.56 0.45 0.37 0.38 0.38 0.35 0.38 0.44 0.55 0.67 0.79 0.90 1.04 1.10 1.17 1.23 1.30 1.36 1.45 1.57 1.59 1.62 1.74 1.83 1.89 1.97 2.04 1.94 1.83 1.74
1.11 1.02 0.86 0.93 0.93 0.83 0.83 0.87 0.84 0.73 0.70 0.72 0.70 0.67 0.57 0.49 0.43 0.38 0.37 0.35 0.38 0.45 0.52 0.59 0.66 0.74 0.83 0.91 1.05 1.15 1.23 1.29 1.34 1.41 1.50 1.58 1.65 1.72 1.72 1.78 1.77 1.73 1.66 1.63
1.18 1.08 1.02 1.03 0.95 0.85 0.87 0.84 0.87 0.88 0.85 0.68 0.58 0.61 0.57 0.51 0.43 0.41 0.40 0.40 0.43 0.45 0.48 0.53 0.60 0.73 0.80 0.89 1.04 1.19 1.29 1.32 1.28 1.28 1.34 1.41 1.46 1.45 1.40 1.33 1.30 1.25 1.24 1.24
0.92 0.84 0.86 0.92 0.88 0.75 0.71 0.69 0.67 0.68 0.67 0.61 0.54 0.49 0.47 0.46 0.44 0.42 0.39 0.39 0.43 0.46 0.48 0.52 0.56 0.66 0.75 0.84 0.96 1.09 1.18 1.20 1.18 1.19 1.26 1.30 1.33 1.36 1.39 1.32 1.19 1.11 1.07 1.03
0.73 0.68 0.68 0.70 0.72 0.72 0.69 0.62 0.52 0.46 0.46 0.45 0.47 0.48 0.44 0.45 0.45 0.45 0.45 0.43 0.41 0.41 0.43 0.47 0.53 0.58 0.67 0.78 0.89 0.96 1.02 1.05 1.08 1.12 1.18 1.26 1.32 1.39 1.50 1.58 1.52 1.34 1.14 1.03
0.72 0.66 0.63 0.55 0.55 0.59 0.56 0.49 0.40 0.35 0.38 0.42 0.39 0.35 0.32 0.31 0.32 0.33 0.34 0.35 0.37 0.39 0.45 0.49 0.54 0.59 0.68 0.81 0.90 0.92 0.93 0.93 0.94 0.98 1.03 1.09 1.12 1.20 1.29 1.39 1.42 1.33 1.18 1.05
0.79 0.73 0.62 0.52 0.55 0.58 0.54 0.49 0.40 0.34 0.33 0.37 0.39 0.34 0.28 0.26 0.28 0.28 0.29 0.33 0.42 0.47 0.52 0.59 0.63 0.66 0.74 0.84 0.89 0.90 0.86 0.84 0.85 0.86 0.86 0.86 0.88 0.96 1.05 1.16 1.21 1.15 1.07 0.96
0.80 0.80 0.67 0.58 0.55 0.53 0.51 0.45 0.37 0.32 0.28 0.27 0.27 0.25 0.24 0.26 0.29 0.31 0.34 0.37 0.42 0.47 0.53 0.60 0.63 0.66 0.78 0.89 0.92 0.92 0.85 0.77 0.73 0.73 0.73 0.75 0.80 0.86 0.90 0.93 0.99 0.95 0.88 0.76
0.72 0.72 0.67 0.60 0.54 0.48 0.47 0.41 0.37 0.35 0.31 0.27 0.24 0.23 0.26 0.33 0.43 0.48 0.48 0.48 0.48 0.48 0.48 0.53 0.58 0.65 0.79 0.91 0.95 0.93 0.84 0.74 0.67 0.64 0.67 0.69 0.71 0.78 0.83 0.84 0.81 0.78 0.73 0.59
0.62 0.61 0.63 0.63 0.61 0.58 0.54 0.45 0.40 0.37 0.33 0.30 0.30 0.31 0.35 0.42 0.53 0.58 0.56 0.59 0.67 0.72 0.64 0.56 0.58 0.59 0.68 0.84 0.97 0.98 0.86 0.73 0.63 0.59 0.60 0.61 0.64 0.74 0.80 0.78 0.70 0.65 0.60 0.56
0.68 0.70 0.75 0.75 0.73 0.71 0.63 0.55 0.48 0.42 0.36 0.33 0.33 0.36 0.42 0.48 0.57 0.64 0.64 0.63 0.67 0.77 0.78 0.72 0.61 0.55 0.59 0.74 0.92 0.90 0.82 0.73 0.64 0.55 0.55 0.60 0.63 0.69 0.73 0.72 0.66 0.61 0.57 0.56
0.75 0.81 0.84 0.77 0.71 0.66 0.59 0.55 0.53 0.50 0.44 0.41 0.43 0.49 0.56 0.59 0.58 0.67 0.76 0.71 0.61 0.68 0.77 0.76 0.66 0.57 0.56 0.67 0.84 0.87 0.80 0.72 0.62 0.53 0.51 0.55 0.58 0.64 0.67 0.68 0.65 0.59 0.58 0.59
0.85 0.90 0.85 0.74 0.67 0.62 0.54 0.49 0.47 0.45 0.43 0.44 0.49 0.58 0.73 0.80 0.75 0.72 0.67 0.66 0.65 0.75 0.80 0.74 0.65 0.56 0.50 0.56 0.67 0.76 0.73 0.66 0.60 0.53 0.47 0.47 0.54 0.61 0.63 0.63 0.60 0.57 0.56 0.58
0.75 0.75 0.70 0.60 0.52 0.44 0.36 0.34 0.36 0.37 0.38 0.43 0.53 0.68 0.89 0.93 0.90 0.93 0.79 0.60 0.61 0.71 0.73 0.68 0.60 0.50 0.44 0.46 0.53 0.61 0.62 0.61 0.57 0.49 0.41 0.42 0.45 0.50 0.53 0.50 0.51 0.53 0.49 0.45
0.49 0.46 0.40 0.36 0.34 0.33 0.31 0.29 0.30 0.31 0.35 0.42 0.48 0.62 0.87 1.03 0.91 0.73 0.68 0.65 0.64 0.62 0.60 0.59 0.52 0.45 0.43 0.42 0.44 0.51 0.56 0.58 0.54 0.48 0.42 0.42 0.43 0.44 0.47 0.46 0.45 0.42 0.38 0.38
0.39 0.32 0.28 0.29 0.33 0.37 0.38 0.38 0.39 0.40 0.47 0.53 0.52 0.55 0.71 0.93 0.97 0.73 0.60 0.56 0.57 0.55 0.52 0.54 0.55 0.54 0.46 0.40 0.39 0.46 0.52 0.55 0.55 0.50 0.45 0.46 0.43 0.45 0.46 0.44 0.43 0.40 0.39 0.40
0.35 0.31 0.30 0.31 0.33 0.39 0.46 0.56 0.66 0.69 0.78 0.89 0.83 0.74 0.80 0.84 0.79 0.69 0.59 0.51 0.49 0.51 0.49 0.52 0.58 0.60 0.52 0.44 0.44 0.48 0.51 0.56 0.56 0.53 0.50 0.48 0.44 0.43 0.44 0.43 0.43 0.42 0.39 0.36
0.39 0.34 0.35 0.37 0.38 0.43 0.56 0.73 0.89 0.96 1.07 1.25 1.28 1.06 0.98 0.96 0.86 0.75 0.67 0.60 0.58 0.56 0.54 0.52 0.52 0.53 0.54 0.52 0.49 0.48 0.52 0.60 0.60 0.59 0.56 0.49 0.44 0.42 0.41 0.38 0.36 0.36 0.33 0.30

GEFSNGP_prec_meanprecacc_168.txt.gz
Total_Precipitation_Accumulation
0.11 0.21 0.23 0.23 0.22 0.18 0.14 0.12 0.21 0.24 0.33 0.38 0.38 0.46 0.51 0.55 0.55 0.58 0.47 0.37 0.42 0.42 0.46 0.52 0.51 0.58 0.56 0.53 0.51 0.60 0.76 0.86 0.96 0.93 0.87 0.81 0.78 0.74 0.72 0.77 0.79 0.86 0.92 0.94
0.15 0.18 0.23 0.27 0.25 0.18 0.13 0.11 0.15 0.22 0.32 0.34 0.39 0.51 0.50 0.43 0.39 0.39 0.34 0.27 0.28 0.40 0.46 0.44 0.41 0.41 0.36 0.36 0.42 0.51 0.62 0.71 0.83 0.93 0.91 0.82 0.78 0.80 0.77 0.81 0.85 0.90 0.93 0.97
0.23 0.23 0.23 0.33 0.32 0.23 0.14 0.13 0.19 0.30 0.42 0.43 0.30 0.33 0.37 0.36 0.35 0.38 0.36 0.23 0.21 0.27 0.35 0.37 0.38 0.34 0.35 0.38 0.44 0.53 0.64 0.73 0.84 0.94 0.95 0.91 0.85 0.88 0.89 0.95 1.01 0.99 0.98 0.97
0.28 0.39 0.49 0.35 0.28 0.27 0.26 0.24 0.26 0.38 0.38 0.43 0.40 0.40 0.42 0.44 0.39 0.33 0.30 0.24 0.19 0.20 0.24 0.29 0.36 0.39 0.42 0.45 0.54 0.62 0.70 0.81 0.92 1.00 0.99 0.99 1.02 1.07 1.12 1.15 1.18 1.16 1.11 1.05
0.44 0.55 0.48 0.41 0.29 0.30 0.36 0.49 0.49 0.56 0.50 0.44 0.44 0.44 0.44 0.39 0.35 0.35 0.28 0.26 0.25 0.23 0.27 0.35 0.39 0.41 0.53 0.62 0.71 0.79 0.84 0.91 0.99 1.09 1.14 1.17 1.22 1.25 1.28 1.33 1.30 1.25 1.21 1.20
0.55 0.67 0.65 0.55 0.41 0.38 0.49 0.89 0.71 0.63 0.62 0.53 0.51 0.56 0.53 0.48 0.44 0.40 0.33 0.30 0.31 0.30 0.37 0.46 0.53 0.60 0.69 0.77 0.84 0.94 1.00 1.13 1.29 1.43 1.45 1.46 1.55 1.60 1.54 1.47 1.39 1.42 1.38 1.36
0.69 0.73 0.77 0.61 0.55 0.54 0.90 1.17 0.86 0.68 0.64 0.65 0.72 0.70 0.62 0.51 0.49 0.44 0.37 0.37 0.35 0.34 0.42 0.57 0.69 0.79 0.90 1.03 1.13 1.09 1.14 1.29 1.51 1.66 1.73 1.77 1.87 1.88 1.85 1.81 1.78 1.72 1.61 1.58
0.80 0.95 1.08 0.74 0.69 0.99 1.16 0.95 0.94 0.89 0.80 0.77 0.73 0.65 0.55 0.49 0.47 0.43 0.40 0.43 0.43 0.42 0.54 0.69 0.83 0.90 1.02 1.09 1.10 1.12 1.19 1.33 1.47 1.63 1.67 1.74 1.93 1.99 2.02 2.01 1.94 1.88 1.82 1.69
0.99 1.11 1.00 0.78 0.84 0.94 0.97 0.97 0.93 0.94 0.93 0.85 0.81 0.70 0.56 0.45 0.42 0.41 0.40 0.43 0.45 0.50 0.68 0.84 0.99 1.08 1.15 1.09 1.16 1.21 1.28 1.41 1.53 1.62 1.70 1.78 1.82 1.81 1.84 1.91 1.90 1.82 1.81 1.74
1.09 1.15 1.03 0.87 0.74 0.68 0.73 0.78 0.78 0.76 0.80 0.82 0.82 0.75 0.60 0.46 0.38 0.40 0.40 0.36 0.41 0.50 0.62 0.73 0.84 0.94 1.08 1.16 1.24 1.30 1.38 1.42 1.50 1.62 1.65 1.68 1.80 1.88 1.94 2.03 2.09 1.99 1.88 1.80
1.25 1.13 0.92 0.96 0.94 0.84 0.85 0.90 0.87 0.76 0.72 0.76 0.75 0.71 0.58 0.50 0.44 0.40 0.39 0.38 0.42 0.53 0.59 0.66 0.71 0.78 0.87 0.96 1.09 1.19 1.26 1.33 1.39 1.45 1.54 1.62 1.67 1.74 1.75 1.81 1.80 1.76 1.70 1.69
1.35 1.20 1.10 1.07 0.97 0.86 0.90 0.87 0.90 0.90 0.88 0.72 0.64 0.67 0.60 0.53 0.44 0.42 0.42 0.43 0.47 0.51 0.54 0.59 0.64 0.76 0.84 0.93 1.08 1.22 1.32 1.36 1.32 1.31 1.38 1.44 1.49 1.47 1.43 1.35 1.31 1.26 1.25 1.26
0.98 0.89 0.93 0.97 0.93 0.77 0.73 0.72 0.70 0.72 0.73 0.66 0.61 0.55 0.51 0.48 0.45 0.43 0.41 0.42 0.45 0.48 0.51 0.55 0.59 0.69 0.78 0.88 1.00 1.11 1.20 1.22 1.21 1.21 1.29 1.33 1.36 1.39 1.41 1.33 1.21 1.12 1.09 1.05
0.77 0.72 0.73 0.74 0.76 0.75 0.72 0.65 0.56 0.52 0.53 0.52 0.53 0.54 0.49 0.47 0.47 0.48 0.48 0.46 0.43 0.42 0.44 0.48 0.54 0.60 0.70 0.81 0.91 0.98 1.03 1.07 1.10 1.14 1.20 1.29 1.35 1.41 1.52 1.60 1.54 1.35 1.16 1.05
0.77 0.71 0.67 0.57 0.57 0.62 0.62 0.54 0.45 0.43 0.48 0.53 0.46 0.40 0.36 0.34 0.35 0.37 0.38 0.38 0.39 0.40 0.46 0.50 0.55 0.60 0.70 0.84 0.93 0.93 0.94 0.94 0.95 0.99 1.04 1.11 1.14 1.22 1.32 1.42 1.45 1.36 1.21 1.08
0.82 0.77 0.65 0.54 0.57 0.62 0.61 0.57 0.47 0.40 0.40 0.46 0.46 0.40 0.33 0.29 0.31 0.31 0.32 0.36 0.45 0.49 0.54 0.60 0.64 0.66 0.75 0.85 0.93 0.95 0.89 0.86 0.86 0.87 0.88 0.87 0.90 0.97 1.07 1.18 1.24 1.18 1.08 0.97
0.84 0.86 0.72 0.61 0.58 0.58 0.58 0.54 0.45 0.38 0.33 0.34 0.34 0.31 0.29 0.29 0.31 0.32 0.35 0.39 0.44 0.48 0.54 0.61 0.64 0.66 0.79 0.89 0.93 0.94 0.88 0.79 0.74 0.74 0.74 0.76 0.81 0.87 0.91 0.95 1.01 0.97 0.89 0.77
0.76 0.75 0.70 0.63 0.58 0.54 0.55 0.49 0.44 0.41 0.37 0.34 0.30 0.29 0.31 0.36 0.45 0.49 0.49 0.49 0.50 0.50 0.50 0.54 0.60 0.67 0.80 0.92 0.96 0.93 0.84 0.74 0.67 0.65 0.67 0.70 0.71 0.78 0.84 0.84 0.82 0.79 0.73 0.60
0.67 0.65 0.68 0.68 0.67 0.65 0.61 0.53 0.47 0.42 0.38 0.35 0.34 0.36 0.39 0.45 0.54 0.59 0.57 0.59 0.68 0.73 0.65 0.58 0.60 0.61 0.69 0.85 0.97 0.98 0.86 0.73 0.63 0.59 0.60 0.62 0.65 0.74 0.80 0.78 0.70 0.65 0.60 0.57
0.73 0.76 0.81 0.81 0.79 0.76 0.68 0.60 0.54 0.49 0.41 0.38 0.37 0.40 0.45 0.50 0.59 0.65 0.65 0.64 0.69 0.79 0.80 0.73 0.63 0.56 0.60 0.74 0.93 0.90 0.82 0.73 0.64 0.55 0.55 0.60 0.63 0.69 0.73 0.72 0.66 0.61 0.58 0.56
0.80 0.87 0.89 0.83 0.76 0.69 0.62 0.58 0.57 0.55 0.49 0.46 0.48 0.53 0.59 0.61 0.59 0.68 0.78 0.73 0.62 0.69 0.78 0.76 0.67 0.57 0.56 0.67 0.85 0.87 0.80 0.72 0.62 0.53 0.51 0.55 0.58 0.64 0.68 0.69 0.65 0.59 0.58 0.59
0.90 0.96 0.91 0.78 0.71 0.64 0.56 0.51 0.49 0.47 0.47 0.51 0.54 0.61 0.76 0.83 0.77 0.74 0.69 0.67 0.66 0.76 0.80 0.74 0.66 0.56 0.50 0.56 0.67 0.76 0.73 0.66 0.60 0.53 0.47 0.47 0.54 0.62 0.63 0.63 0.61 0.57 0.57 0.59
0.80 0.81 0.75 0.64 0.56 0.47 0.39 0.37 0.38 0.39 0.41 0.49 0.58 0.72 0.93 0.96 0.92 0.96 0.80 0.61 0.62 0.72 0.73 0.69 0.60 0.50 0.45 0.46 0.54 0.61 0.63 0.61 0.57 0.49 0.41 0.42 0.46 0.50 0.53 0.50 0.52 0.53 0.49 0.45
0.55 0.53 0.46 0.41 0.38 0.36 0.35 0.32 0.32 0.33 0.38 0.46 0.51 0.64 0.90 1.05 0.93 0.74 0.68 0.66 0.65 0.62 0.60 0.59 0.53 0.45 0.43 0.42 0.44 0.51 0.56 0.59 0.55 0.49 0.42 0.43 0.43 0.44 0.47 0.46 0.45 0.43 0.38 0.38
0.47 0.40 0.35 0.34 0.37 0.41 0.42 0.42 0.43 0.43 0.49 0.54 0.53 0.57 0.72 0.94 0.97 0.74 0.60 0.56 0.57 0.55 0.52 0.54 0.55 0.54 0.46 0.40 0.39 0.46 0.52 0.55 0.55 0.50 0.46 0.46 0.43 0.45 0.46 0.44 0.43 0.40 0.39 0.40
0.44 0.39 0.37 0.35 0.37 0.43 0.50 0.60 0.70 0.71 0.80 0.91 0.85 0.75 0.80 0.85 0.79 0.70 0.59 0.51 0.49 0.51 0.49 0.53 0.58 0.60 0.52 0.44 0.44 0.48 0.51 0.56 0.56 0.53 0.51 0.48 0.44 0.43 0.44 0.43 0.43 0.42 0.39 0.36
0.47 0.41 0.42 0.43 0.43 0.47 0.59 0.76 0.91 0.98 1.09 1.27 1.30 1.07 0.98 0.96 0.86 0.76 0.67 0.60 0.58 0.56 0.54 0.52 0.52 0.53 0.54 0.52 0.49 0.48 0.52 0.60 0.60 0.59 0.56 0.49 0.44 0.42 0.41 0.38 0.36 0.36 0.33 0.30

GEFSNGP_prec_meanprecacc_174.txt.gz
Total_Precipitation_Accumulation
0.12 0.21 0.24 0.24 0.22 0.18 0.14 0.12 0.21 0.25 0.36 0.43 0.43 0.54 0.67 0.80 0.78 0.76 0.61 0.48 0.49 0.46 0.51 0.56 0.56 0.63 0.60 0.55 0.54 0.65 0.82 0.92 1.01 0.98 0.91 0.88 0.86 0.84 0.83 0.91 0.92 0.99 1.05 1.06
0.15 0.19 0.24 0.27 0.25 0.18 0.13 0.11 0.16 0.24 0.37 0.47 0.53 0.61 0.65 0.60 0.52 0.49 0.41 0.31 0.31 0.42 0.48 0.46 0.44 0.46 0.39 0.40 0.47 0.57 0.68 0.77 0.90 0.99 0.97 0.90 0.87 0.88 0.87 0.94 0.97 1.01 1.03 1.10
0.24 0.23 0.24 0.34 0.33 0.24 0.15 0.14 0.20 0.32 0.47 0.61 0.51 0.50 0.55 0.50 0.48 0.48 0.42 0.27 0.23 0.29 0.37 0.39 0.40 0.36 0.37 0.42 0.50 0.60 0.71 0.80 0.91 1.03 1.08 1.03 0.94 0.98 0.99 1.04 1.10 1.08 1.07 1.07
0.29 0.40 0.50 0.36 0.30 0.29 0.28 0.26 0.27 0.39 0.41 0.51 0.51 0.56 0.64 0.59 0.54 0.42 0.35 0.28 0.22 0.22 0.26 0.32 0.38 0.42 0.47 0.54 0.63 0.70 0.78 0.88 1.03 1.12 1.11 1.10 1.12 1.16 1.19 1.23 1.26 1.24 1.20 1.14
0.45 0.57 0.50 0.44 0.32 0.35 0.40 0.53 0.53 0.61 0.55 0.50 0.50 0.56 0.61 0.51 0.43 0.40 0.32 0.29 0.27 0.25 0.30 0.37 0.42 0.44 0.58 0.71 0.83 0.91 0.93 0.98 1.09 1.21 1.24 1.27 1.32 1.33 1.37 1.42 1.37 1.32 1.30 1.33
0.57 0.70 0.70 0.60 0.47 0.46 0.57 0.97 0.80 0.72 0.70 0.60 0.57 0.65 0.65 0.57 0.51 0.44 0.36 0.34 0.34 0.33 0.40 0.48 0.56 0.62 0.72 0.82 0.91 1.04 1.10 1.20 1.36 1.51 1.53 1.54 1.63 1.69 1.64 1.57 1.48 1.49 1.47 1.47
0.71 0.76 0.81 0.71 0.66 0.67 1.04 1.29 0.98 0.82 0.78 0.75 0.81 0.80 0.74 0.64 0.59 0.51 0.43 0.42 0.40 0.39 0.46 0.60 0.71 0.81 0.93 1.07 1.16 1.13 1.20 1.35 1.57 1.71 1.79 1.84 1.94 1.97 1.94 1.91 1.88 1.82 1.71 1.67
0.84 1.00 1.14 0.81 0.77 1.13 1.36 1.15 1.16 1.12 1.04 0.91 0.84 0.78 0.72 0.64 0.60 0.53 0.49 0.51 0.50 0.49 0.60 0.74 0.87 0.93 1.04 1.11 1.13 1.17 1.25 1.39 1.52 1.66 1.71 1.78 1.99 2.06 2.10 2.11 2.05 1.98 1.92 1.78
1.05 1.17 1.09 0.87 0.93 1.12 1.24 1.38 1.30 1.21 1.20 1.02 0.94 0.82 0.70 0.61 0.56 0.51 0.48 0.50 0.52 0.56 0.74 0.91 1.02 1.11 1.18 1.13 1.21 1.27 1.34 1.47 1.59 1.68 1.76 1.85 1.89 1.88 1.91 1.97 1.97 1.90 1.91 1.83
1.17 1.23 1.15 0.99 0.84 0.81 0.96 1.07 1.03 0.99 1.01 0.97 0.93 0.86 0.74 0.61 0.51 0.48 0.46 0.41 0.45 0.55 0.66 0.78 0.87 0.97 1.11 1.20 1.30 1.37 1.43 1.48 1.56 1.68 1.71 1.74 1.86 1.93 1.98 2.07 2.14 2.05 1.94 1.85
1.36 1.24 1.07 1.13 1.06 0.95 1.01 1.08 0.99 0.89 0.84 0.84 0.82 0.79 0.66 0.58 0.51 0.45 0.44 0.42 0.47 0.57 0.64 0.70 0.75 0.83 0.92 1.02 1.15 1.25 1.32 1.38 1.43 1.48 1.56 1.64 1.70 1.77 1.77 1.83 1.81 1.78 1.73 1.71
1.53 1.34 1.23 1.23 1.09 0.98 1.04 1.00 1.00 1.00 0.96 0.77 0.69 0.72 0.67 0.59 0.51 0.48 0.49 0.50 0.53 0.57 0.59 0.63 0.68 0.80 0.90 0.99 1.14 1.28 1.37 1.39 1.35 1.34 1.39 1.45 1.50 1.48 1.44 1.36 1.32 1.27 1.27 1.28
1.20 1.06 1.07 1.10 1.05 0.93 0.92 0.87 0.82 0.83 0.81 0.72 0.65 0.63 0.63 0.59 0.54 0.50 0.47 0.47 0.50 0.57 0.58 0.60 0.64 0.74 0.83 0.92 1.05 1.16 1.23 1.25 1.24 1.24 1.31 1.34 1.36 1.39 1.42 1.34 1.22 1.14 1.10 1.06
0.99 0.92 0.90 0.87 0.86 0.85 0.82 0.75 0.65 0.61 0.61 0.59 0.59 0.60 0.58 0.57 0.54 0.55 0.55 0.51 0.47 0.47 0.50 0.54 0.61 0.65 0.74 0.84 0.95 1.01 1.06 1.10 1.14 1.18 1.23 1.30 1.35 1.42 1.52 1.61 1.55 1.37 1.18 1.07
0.99 0.90 0.81 0.67 0.64 0.68 0.67 0.59 0.50 0.49 0.55 0.59 0.51 0.45 0.44 0.40 0.39 0.41 0.43 0.43 0.44 0.45 0.51 0.56 0.61 0.65 0.73 0.87 0.95 0.95 0.95 0.96 0.97 1.03 1.08 1.14 1.17 1.23 1.34 1.45 1.48 1.38 1.23 1.10
1.05 0.93 0.75 0.60 0.64 0.68 0.64 0.60 0.52 0.46 0.46 0.52 0.51 0.44 0.37 0.34 0.35 0.34 0.35 0.39 0.49 0.54 0.59 0.64 0.67 0.69 0.77 0.87 0.95 0.97 0.93 0.90 0.88 0.90 0.91 0.91 0.94 1.01 1.11 1.21 1.27 1.21 1.12 1.00
1.05 0.99 0.83 0.70 0.65 0.63 0.60 0.57 0.49 0.43 0.37 0.39 0.40 0.36 0.34 0.34 0.34 0.35 0.37 0.41 0.46 0.51 0.57 0.64 0.66 0.68 0.80 0.90 0.94 0.95 0.91 0.85 0.80 0.79 0.78 0.79 0.84 0.89 0.93 0.96 1.02 0.98 0.90 0.77
0.91 0.86 0.79 0.74 0.66 0.59 0.57 0.52 0.47 0.45 0.42 0.40 0.36 0.34 0.36 0.42 0.50 0.53 0.52 0.51 0.51 0.51 0.51 0.55 0.61 0.67 0.80 0.93 0.96 0.93 0.85 0.75 0.68 0.65 0.68 0.71 0.73 0.80 0.85 0.85 0.83 0.79 0.74 0.60
0.77 0.71 0.73 0.73 0.72 0.69 0.64 0.56 0.51 0.47 0.42 0.39 0.39 0.41 0.45 0.51 0.59 0.62 0.60 0.64 0.71 0.75 0.66 0.59 0.61 0.61 0.70 0.85 0.97 0.98 0.86 0.73 0.64 0.59 0.60 0.62 0.65 0.74 0.81 0.78 0.70 0.65 0.60 0.57
0.79 0.80 0.85 0.86 0.83 0.80 0.72 0.64 0.59 0.53 0.45 0.41 0.42 0.45 0.51 0.56 0.63 0.69 0.69 0.67 0.71 0.80 0.80 0.74 0.63 0.57 0.60 0.74 0.93 0.90 0.82 0.73 0.64 0.55 0.55 0.60 0.63 0.69 0.73 0.73 0.66 0.61 0.58 0.56
0.85 0.92 0.95 0.88 0.81 0.73 0.66 0.62 0.60 0.59 0.52 0.49 0.52 0.57 0.64 0.65 0.63 0.71 0.80 0.74 0.64 0.70 0.78 0.77 0.67 0.58 0.56 0.67 0.85 0.88 0.80 0.72 0.62 0.53 0.51 0.55 0.58 0.64 0.68 0.69 0.65 0.59 0.58 0.59
0.95 1.01 0.95 0.81 0.74 0.68 0.60 0.54 0.52 0.51 0.50 0.53 0.57 0.66 0.80 0.86 0.78 0.75 0.70 0.68 0.67 0.77 0.81 0.75 0.66 0.56 0.50 0.56 0.67 0.76 0.73 0.66 0.60 0.53 0.47 0.47 0.54 0.62 0.63 0.63 0.61 0.57 0.57 0.59
0.84 0.84 0.80 0.67 0.59 0.51 0.43 0.41 0.42 0.41 0.43 0.51 0.61 0.76 0.98 1.00 0.95 0.97 0.82 0.62 0.62 0.72 0.74 0.69 0.61 0.50 0.45 0.46 0.54 0.61 0.63 0.61 0.57 0.49 0.41 0.42 0.46 0.50 0.53 0.50 0.52 0.53 0.50 0.45
0.59 0.57 0.51 0.46 0.43 0.41 0.41 0.40 0.37 0.37 0.40 0.48 0.55 0.69 0.95 1.12 0.97 0.76 0.70 0.66 0.65 0.63 0.61 0.60 0.53 0.46 0.43 0.42 0.44 0.51 0.57 0.59 0.55 0.49 0.42 0.43 0.43 0.44 0.48 0.47 0.46 0.43 0.38 0.38
0.51 0.44 0.39 0.38 0.42 0.47 0.49 0.49 0.47 0.46 0.52 0.57 0.56 0.60 0.75 0.97 1.00 0.76 0.61 0.56 0.58 0.55 0.53 0.54 0.56 0.54 0.46 0.40 0.39 0.46 0.52 0.55 0.55 0.51 0.46 0.46 0.43 0.45 0.47 0.44 0.43 0.40 0.39 0.40
0.49 0.43 0.41 0.40 0.40 0.47 0.55 0.64 0.74 0.76 0.84 0.94 0.88 0.78 0.81 0.86 0.80 0.70 0.59 0.51 0.49 0.51 0.50 0.53 0.58 0.61 0.52 0.44 0.44 0.48 0.51 0.56 0.56 0.53 0.51 0.49 0.45 0.43 0.44 0.43 0.43 0.42 0.39 0.37
0.51 0.46 0.46 0.48 0.46 0.50 0.62 0.78 0.94 1.01 1.12 1.30 1.32 1.09 0.99 0.97 0.87 0.76 0.67 0.60 0.58 0.56 0.54 0.52 0.52 0.53 0.54 0.52 0.49 0.48 0.52 0.60 0.60 0.59 0.56 0.49 0.44 0.43 0.41 0.38 0.36 0.36 0.33 0.30

GEFSNGP_prec_meanprecacc_180.txt.gz
Total_Precipitation_Accumulation
0.12 0.21 0.24 0.24 0.22 0.18 0.14 0.12 0.21 0.25 0.36 0.43 0.43 0.55 0.68 0.80 0.79 0.78 0.64 0.53 0.53 0.51 0.56 0.63 0.63 0.70 0.66 0.61 0.59 0.68 0.86 0.98 1.08 1.06 0.99 0.95 0.95 0.93 0.90 0.99 1.01 1.07 1.15 1.15
0.16 0.19 0.24 0.27 0.25 0.18 0.13 0.11 0.16 0.24 0.37 0.47 0.54 0.62 0.66 0.61 0.54 0.52 0.47 0.35 0.34 0.44 0.51 0.50 0.48 0.50 0.44 0.45 0.52 0.63 0.74 0.84 0.97 1.06 1.04 0.97 0.93 0.95 0.93 1.01 1.06 1.10 1.12 1.18
0.24 0.23 0.24 0.34 0.33 0.24 0.15 0.14 0.20 0.32 0.47 0.61 0.52 0.51 0.57 0.53 0.51 0.51 0.46 0.30 0.25 0.30 0.38 0.41 0.43 0.39 0.40 0.48 0.58 0.68 0.79 0.87 0.99 1.09 1.13 1.09 1.01 1.04 1.05 1.12 1.19 1.17 1.15 1.15
0.30 0.41 0.50 0.37 0.30 0.29 0.28 0.26 0.27 0.39 0.41 0.52 0.52 0.58 0.66 0.63 0.58 0.46 0.40 0.31 0.24 0.24 0.27 0.34 0.41 0.45 0.51 0.61 0.73 0.79 0.86 0.95 1.09 1.19 1.19 1.17 1.19 1.24 1.29 1.35 1.38 1.36 1.30 1.23
0.45 0.58 0.50 0.44 0.32 0.36 0.40 0.53 0.54 0.61 0.55 0.51 0.51 0.58 0.64 0.55 0.48 0.45 0.38 0.34 0.31 0.28 0.34 0.42 0.46 0.49 0.64 0.79 0.93 0.99 0.98 1.03 1.15 1.27 1.32 1.35 1.40 1.45 1.50 1.55 1.49 1.44 1.42 1.42
0.57 0.71 0.70 0.60 0.47 0.46 0.57 0.98 0.81 0.74 0.70 0.60 0.58 0.68 0.69 0.61 0.54 0.49 0.42 0.40 0.39 0.38 0.46 0.55 0.61 0.66 0.78 0.87 0.96 1.08 1.16 1.28 1.44 1.60 1.64 1.67 1.77 1.85 1.78 1.70 1.58 1.58 1.55 1.53
0.72 0.77 0.82 0.72 0.66 0.67 1.04 1.29 0.98 0.83 0.79 0.76 0.84 0.84 0.78 0.68 0.63 0.57 0.49 0.48 0.44 0.44 0.52 0.66 0.76 0.85 0.97 1.10 1.19 1.16 1.24 1.41 1.62 1.77 1.85 1.91 2.03 2.07 2.02 2.00 1.96 1.88 1.76 1.71
0.85 1.01 1.15 0.81 0.78 1.14 1.36 1.16 1.16 1.13 1.05 0.93 0.87 0.83 0.76 0.68 0.65 0.59 0.55 0.57 0.55 0.54 0.66 0.81 0.94 0.99 1.09 1.15 1.18 1.21 1.27 1.41 1.54 1.68 1.72 1.79 2.01 2.11 2.17 2.18 2.12 2.03 1.97 1.82
1.06 1.18 1.10 0.88 0.94 1.13 1.25 1.38 1.31 1.22 1.21 1.05 0.97 0.88 0.76 0.67 0.62 0.58 0.54 0.56 0.57 0.61 0.79 0.96 1.10 1.18 1.24 1.18 1.24 1.30 1.36 1.49 1.61 1.69 1.77 1.86 1.91 1.91 1.97 2.04 2.03 1.95 1.95 1.87
1.18 1.25 1.17 1.00 0.86 0.83 0.98 1.09 1.05 1.02 1.03 1.01 0.98 0.90 0.79 0.66 0.55 0.52 0.50 0.45 0.49 0.59 0.70 0.81 0.91 1.01 1.15 1.24 1.32 1.39 1.46 1.51 1.58 1.69 1.72 1.75 1.87 1.95 2.01 2.10 2.19 2.10 1.99 1.90
1.39 1.28 1.11 1.17 1.09 0.98 1.03 1.11 1.03 0.94 0.89 0.90 0.88 0.84 0.70 0.62 0.55 0.49 0.47 0.45 0.49 0.59 0.65 0.72 0.77 0.85 0.95 1.04 1.17 1.27 1.34 1.40 1.45 1.49 1.57 1.65 1.70 1.79 1.80 1.86 1.84 1.81 1.77 1.75
1.58 1.40 1.27 1.26 1.13 1.01 1.08 1.05 1.06 1.07 1.05 0.86 0.77 0.79 0.73 0.65 0.55 0.52 0.52 0.52 0.56 0.59 0.61 0.65 0.70 0.83 0.93 1.02 1.16 1.30 1.39 1.41 1.37 1.35 1.40 1.46 1.50 1.49 1.46 1.38 1.35 1.31 1.31 1.32
1.25 1.11 1.12 1.13 1.08 0.96 0.97 0.92 0.88 0.90 0.90 0.82 0.76 0.71 0.70 0.65 0.59 0.54 0.49 0.49 0.53 0.59 0.60 0.62 0.67 0.77 0.85 0.95 1.07 1.18 1.25 1.27 1.26 1.27 1.33 1.34 1.36 1.39 1.43 1.35 1.24 1.16 1.14 1.11
1.03 0.98 0.95 0.93 0.90 0.89 0.86 0.79 0.70 0.66 0.67 0.66 0.66 0.66 0.64 0.62 0.59 0.59 0.58 0.54 0.51 0.51 0.53 0.57 0.65 0.71 0.79 0.89 0.97 1.03 1.08 1.13 1.17 1.21 1.26 1.33 1.37 1.43 1.54 1.62 1.56 1.38 1.19 1.09
1.04 0.95 0.86 0.72 0.70 0.73 0.72 0.63 0.54 0.54 0.60 0.63 0.55 0.50 0.49 0.44 0.43 0.46 0.47 0.47 0.48 0.49 0.56 0.61 0.67 0.71 0.79 0.92 0.99 0.99 0.99 1.00 1.00 1.06 1.12 1.18 1.20 1.26 1.36 1.46 1.49 1.39 1.25 1.12
1.11 0.98 0.80 0.66 0.69 0.74 0.69 0.65 0.56 0.49 0.49 0.54 0.54 0.46 0.39 0.36 0.38 0.39 0.39 0.42 0.51 0.57 0.64 0.71 0.76 0.76 0.82 0.91 0.99 1.01 0.96 0.93 0.91 0.93 0.94 0.94 0.97 1.04 1.14 1.24 1.30 1.23 1.13 1.02
1.10 1.04 0.88 0.74 0.69 0.69 0.66 0.62 0.53 0.47 0.41 0.41 0.42 0.38 0.35 0.35 0.36 0.38 0.40 0.42 0.48 0.53 0.60 0.70 0.74 0.76 0.85 0.93 0.96 0.97 0.93 0.87 0.84 0.84 0.83 0.83 0.87 0.93 0.97 1.00 1.05 1.00 0.92 0.80
0.96 0.90 0.82 0.76 0.68 0.65 0.65 0.58 0.52 0.48 0.46 0.43 0.38 0.36 0.37 0.42 0.51 0.54 0.53 0.53 0.53 0.52 0.53 0.58 0.64 0.71 0.83 0.95 0.97 0.94 0.85 0.76 0.69 0.68 0.71 0.74 0.76 0.83 0.88 0.89 0.86 0.82 0.76 0.61
0.82 0.76 0.75 0.75 0.75 0.73 0.68 0.62 0.57 0.51 0.46 0.43 0.42 0.42 0.46 0.52 0.60 0.64 0.61 0.65 0.74 0.78 0.68 0.60 0.63 0.63 0.71 0.86 0.97 0.98 0.87 0.74 0.64 0.60 0.61 0.62 0.66 0.75 0.81 0.79 0.72 0.66 0.61 0.57
0.84 0.85 0.89 0.89 0.85 0.82 0.74 0.67 0.62 0.57 0.48 0.43 0.43 0.46 0.51 0.57 0.64 0.70 0.70 0.69 0.73 0.83 0.83 0.75 0.65 0.58 0.60 0.74 0.93 0.91 0.83 0.73 0.64 0.55 0.55 0.61 0.63 0.69 0.73 0.73 0.67 0.62 0.59 0.57
0.89 0.97 0.99 0.91 0.84 0.75 0.68 0.63 0.61 0.60 0.54 0.51 0.53 0.58 0.64 0.66 0.64 0.73 0.82 0.76 0.65 0.72 0.80 0.78 0.68 0.58 0.57 0.68 0.85 0.89 0.81 0.73 0.63 0.53 0.51 0.55 0.59 0.64 0.68 0.69 0.65 0.60 0.59 0.60
0.99 1.06 1.00 0.85 0.77 0.70 0.61 0.55 0.53 0.52 0.51 0.54 0.59 0.67 0.81 0.87 0.81 0.77 0.71 0.70 0.69 0.78 0.83 0.76 0.67 0.57 0.51 0.57 0.67 0.77 0.74 0.68 0.61 0.53 0.47 0.48 0.54 0.62 0.63 0.63 0.61 0.57 0.57 0.59
0.89 0.89 0.83 0.70 0.61 0.52 0.44 0.42 0.42 0.42 0.44 0.52 0.63 0.78 1.00 1.02 0.96 0.98 0.83 0.64 0.65 0.75 0.76 0.71 0.63 0.53 0.47 0.47 0.55 0.62 0.64 0.62 0.58 0.49 0.41 0.42 0.46 0.50 0.53 0.50 0.52 0.53 0.50 0.45
0.64 0.61 0.54 0.48 0.45 0.43 0.44 0.42 0.40 0.39 0.42 0.50 0.57 0.71 0.98 1.14 0.98 0.77 0.71 0.68 0.67 0.66 0.63 0.62 0.55 0.47 0.44 0.43 0.45 0.52 0.57 0.59 0.55 0.49 0.42 0.43 0.43 0.44 0.48 0.47 0.46 0.43 0.38 0.38
0.55 0.48 0.42 0.42 0.45 0.50 0.52 0.52 0.50 0.49 0.54 0.59 0.59 0.62 0.78 1.00 1.02 0.77 0.62 0.57 0.59 0.57 0.55 0.57 0.58 0.55 0.47 0.40 0.39 0.47 0.53 0.55 0.55 0.51 0.46 0.47 0.44 0.46 0.47 0.44 0.43 0.41 0.40 0.41
0.52 0.46 0.44 0.43 0.44 0.51 0.59 0.67 0.77 0.79 0.86 0.96 0.90 0.80 0.84 0.88 0.82 0.72 0.60 0.52 0.50 0.52 0.50 0.53 0.59 0.61 0.52 0.44 0.44 0.48 0.51 0.56 0.56 0.53 0.51 0.49 0.45 0.43 0.44 0.44 0.43 0.43 0.40 0.37
0.54 0.48 0.49 0.50 0.49 0.53 0.65 0.81 0.96 1.04 1.15 1.32 1.34 1.10 1.00 0.98 0.88 0.77 0.68 0.61 0.58 0.56 0.54 0.52 0.52 0.53 0.54 0.52 0.49 0.48 0.52 0.60 0.60 0.59 0.56 0.49 0.44 0.43 0.41 0.38 0.36 0.36 0.34 0.31

GEFSNGP_prec_meanprecacc_186.txt.gz
Total_Precipitation_Accumulation
0.12 0.21 0.24 0.24 0.22 0.18 0.14 0.12 0.21 0.25 0.36 0.43 0.43 0.55 0.68 0.80 0.79 0.78 0.65 0.53 0.54 0.51 0.57 0.64 0.66 0.73 0.68 0.63 0.63 0.73 0.91 1.03 1.14 1.13 1.08 1.04 1.04 1.03 0.98 1.07 1.12 1.18 1.22 1.21
0.16 0.19 0.24 0.27 0.25 0.18 0.13 0.11 0.16 0.24 0.37 0.47 0.54 0.62 0.66 0.61 0.54 0.52 0.47 0.36 0.35 0.44 0.51 0.51 0.51 0.55 0.47 0.49 0.58 0.69 0.80 0.90 1.03 1.14 1.12 1.04 1.01 1.03 1.00 1.08 1.13 1.17 1.17 1.23
0.24 0.23 0.24 0.34 0.33 0.24 0.15 0.14 0.20 0.32 0.47 0.61 0.52 0.51 0.57 0.53 0.52 0.51 0.46 0.31 0.26 0.30 0.39 0.41 0.44 0.42 0.45 0.53 0.64 0.75 0.86 0.92 1.03 1.14 1.19 1.15 1.07 1.13 1.13 1.19 1.26 1.24 1.20 1.20
0.30 0.41 0.50 0.37 0.30 0.29 0.28 0.26 0.27 0.39 0.41 0.52 0.52 0.58 0.67 0.63 0.58 0.46 0.40 0.32 0.25 0.25 0.28 0.35 0.41 0.48 0.55 0.66 0.81 0.88 0.94 1.01 1.13 1.23 1.24 1.24 1.26 1.32 1.42 1.48 1.48 1.45 1.39 1.31
0.45 0.58 0.50 0.44 0.32 0.36 0.40 0.53 0.54 0.61 0.55 0.51 0.51 0.58 0.65 0.56 0.48 0.46 0.38 0.34 0.32 0.29 0.36 0.44 0.48 0.52 0.68 0.84 1.00 1.05 1.03 1.08 1.19 1.31 1.38 1.45 1.50 1.51 1.56 1.63 1.59 1.54 1.54 1.57
0.57 0.71 0.70 0.60 0.47 0.46 0.57 0.98 0.81 0.74 0.70 0.60 0.59 0.68 0.70 0.62 0.55 0.50 0.43 0.41 0.40 0.39 0.47 0.57 0.63 0.68 0.81 0.91 1.00 1.13 1.19 1.31 1.48 1.64 1.68 1.73 1.87 1.95 1.86 1.77 1.66 1.70 1.71 1.73
0.72 0.77 0.82 0.72 0.66 0.67 1.05 1.29 0.98 0.83 0.79 0.76 0.84 0.85 0.79 0.69 0.65 0.59 0.51 0.50 0.47 0.47 0.55 0.68 0.79 0.88 1.00 1.13 1.22 1.21 1.29 1.44 1.65 1.80 1.88 1.95 2.09 2.17 2.15 2.13 2.10 2.03 1.94 1.92
0.85 1.01 1.15 0.82 0.78 1.14 1.36 1.16 1.16 1.13 1.05 0.93 0.87 0.83 0.77 0.69 0.67 0.61 0.58 0.60 0.59 0.59 0.70 0.84 0.97 1.02 1.12 1.18 1.21 1.24 1.30 1.42 1.55 1.69 1.72 1.80 2.02 2.14 2.21 2.24 2.21 2.12 2.04 1.91
1.06 1.18 1.10 0.88 0.94 1.14 1.25 1.39 1.32 1.22 1.21 1.05 0.98 0.88 0.77 0.68 0.63 0.59 0.57 0.60 0.61 0.66 0.84 1.00 1.12 1.20 1.27 1.20 1.27 1.32 1.38 1.50 1.61 1.70 1.78 1.87 1.92 1.92 2.00 2.09 2.09 2.01 2.00 1.93
1.19 1.25 1.17 1.01 0.86 0.84 0.98 1.09 1.06 1.03 1.04 1.02 0.99 0.92 0.81 0.67 0.56 0.53 0.53 0.48 0.52 0.61 0.72 0.82 0.92 1.03 1.17 1.26 1.34 1.41 1.48 1.52 1.59 1.70 1.74 1.76 1.88 1.96 2.02 2.12 2.22 2.13 2.02 1.94
1.40 1.29 1.12 1.18 1.10 0.99 1.04 1.12 1.05 0.97 0.93 0.93 0.90 0.86 0.71 0.63 0.56 0.51 0.49 0.48 0.51 0.61 0.66 0.73 0.78 0.86 0.96 1.06 1.19 1.29 1.36 1.42 1.47 1.51 1.59 1.66 1.71 1.79 1.81 1.87 1.86 1.83 1.78 1.78
1.59 1.41 1.28 1.27 1.15 1.04 1.10 1.07 1.10 1.11 1.08 0.89 0.79 0.81 0.75 0.67 0.58 0.55 0.55 0.54 0.57 0.61 0.62 0.66 0.71 0.84 0.94 1.03 1.18 1.32 1.42 1.44 1.40 1.38 1.43 1.48 1.51 1.49 1.47 1.39 1.36 1.32 1.32 1.33
1.25 1.12 1.13 1.15 1.10 0.99 0.99 0.95 0.92 0.94 0.94 0.86 0.79 0.73 0.73 0.69 0.63 0.57 0.52 0.51 0.55 0.61 0.60 0.63 0.67 0.78 0.86 0.96 1.08 1.20 1.29 1.33 1.32 1.31 1.37 1.37 1.39 1.42 1.44 1.36 1.25 1.17 1.15 1.13
1.05 0.99 0.98 0.96 0.92 0.91 0.88 0.81 0.72 0.69 0.70 0.70 0.71 0.69 0.67 0.66 0.64 0.63 0.61 0.56 0.54 0.53 0.54 0.58 0.66 0.72 0.80 0.90 0.99 1.06 1.11 1.18 1.25 1.32 1.36 1.40 1.42 1.47 1.57 1.64 1.57 1.39 1.21 1.11
1.07 0.97 0.89 0.75 0.73 0.77 0.75 0.66 0.57 0.56 0.63 0.66 0.58 0.53 0.52 0.49 0.47 0.50 0.49 0.49 0.50 0.51 0.58 0.62 0.68 0.73 0.80 0.93 1.01 1.02 1.02 1.03 1.05 1.12 1.19 1.25 1.26 1.31 1.39 1.49 1.52 1.42 1.27 1.14
1.14 1.01 0.82 0.69 0.73 0.78 0.72 0.68 0.59 0.52 0.52 0.57 0.56 0.48 0.42 0.40 0.41 0.41 0.43 0.45 0.55 0.60 0.67 0.73 0.80 0.78 0.84 0.94 1.02 1.05 1.00 0.98 0.97 0.97 0.99 0.99 1.01 1.07 1.17 1.28 1.33 1.26 1.16 1.04
1.14 1.08 0.91 0.78 0.72 0.74 0.70 0.66 0.57 0.49 0.43 0.44 0.44 0.40 0.36 0.37 0.38 0.40 0.42 0.45 0.51 0.56 0.64 0.73 0.79 0.80 0.89 0.96 1.00 1.02 0.98 0.93 0.90 0.89 0.87 0.87 0.90 0.95 0.99 1.02 1.07 1.03 0.96 0.83
1.00 0.95 0.87 0.80 0.72 0.70 0.69 0.63 0.56 0.51 0.48 0.46 0.41 0.37 0.38 0.44 0.52 0.55 0.54 0.54 0.54 0.54 0.55 0.61 0.68 0.75 0.87 0.99 1.04 1.01 0.91 0.81 0.75 0.72 0.75 0.78 0.80 0.87 0.92 0.92 0.89 0.84 0.78 0.62
0.86 0.81 0.81 0.80 0.78 0.77 0.72 0.66 0.60 0.54 0.48 0.45 0.44 0.45 0.48 0.54 0.62 0.65 0.62 0.66 0.75 0.79 0.70 0.62 0.65 0.65 0.72 0.89 1.02 1.03 0.93 0.81 0.72 0.66 0.66 0.67 0.70 0.79 0.84 0.81 0.73 0.67 0.62 0.58
0.89 0.91 0.94 0.93 0.89 0.86 0.78 0.69 0.64 0.58 0.50 0.45 0.45 0.48 0.53 0.58 0.65 0.71 0.71 0.70 0.74 0.84 0.83 0.76 0.65 0.58 0.62 0.76 0.95 0.93 0.87 0.79 0.70 0.59 0.59 0.64 0.66 0.71 0.74 0.74 0.68 0.63 0.60 0.58
0.95 1.03 1.04 0.95 0.88 0.79 0.71 0.65 0.63 0.61 0.56 0.54 0.56 0.60 0.65 0.66 0.65 0.73 0.82 0.76 0.66 0.72 0.81 0.79 0.68 0.59 0.57 0.69 0.86 0.89 0.83 0.74 0.64 0.54 0.52 0.56 0.59 0.64 0.68 0.69 0.65 0.60 0.59 0.60
1.06 1.15 1.06 0.89 0.81 0.73 0.63 0.57 0.54 0.53 0.52 0.56 0.61 0.68 0.82 0.88 0.81 0.77 0.72 0.70 0.69 0.79 0.83 0.76 0.67 0.58 0.51 0.57 0.68 0.78 0.75 0.68 0.62 0.54 0.47 0.48 0.55 0.62 0.64 0.63 0.61 0.58 0.57 0.59
0.99 0.98 0.91 0.75 0.64 0.55 0.47 0.45 0.44 0.44 0.46 0.54 0.65 0.80 1.01 1.03 0.97 0.99 0.84 0.64 0.65 0.75 0.76 0.71 0.63 0.53 0.47 0.48 0.55 0.63 0.65 0.64 0.59 0.51 0.42 0.43 0.47 0.51 0.54 0.50 0.52 0.53 0.50 0.45
0.75 0.72 0.63 0.52 0.47 0.45 0.46 0.45 0.42 0.42 0.45 0.53 0.59 0.73 0.99 1.15 0.99 0.77 0.72 0.69 0.68 0.66 0.64 0.63 0.56 0.48 0.46 0.44 0.46 0.53 0.59 0.61 0.58 0.51 0.43 0.43 0.44 0.45 0.48 0.47 0.46 0.43 0.38 0.38
0.67 0.58 0.49 0.45 0.47 0.52 0.55 0.54 0.54 0.52 0.57 0.62 0.61 0.65 0.80 1.02 1.04 0.78 0.63 0.58 0.60 0.58 0.57 0.60 0.60 0.57 0.48 0.41 0.40 0.47 0.53 0.56 0.56 0.51 0.47 0.47 0.44 0.46 0.47 0.44 0.43 0.41 0.40 0.41
0.62 0.54 0.50 0.48 0.48 0.55 0.62 0.70 0.80 0.81 0.89 1.00 0.93 0.82 0.86 0.90 0.84 0.73 0.62 0.53 0.51 0.54 0.52 0.55 0.60 0.62 0.53 0.45 0.45 0.48 0.52 0.57 0.57 0.53 0.51 0.49 0.45 0.44 0.45 0.44 0.44 0.43 0.40 0.37
0.60 0.53 0.53 0.55 0.54 0.57 0.69 0.84 0.98 1.07 1.19 1.36 1.37 1.13 1.02 0.99 0.90 0.79 0.69 0.61 0.59 0.57 0.55 0.53 0.53 0.54 0.55 0.53 0.49 0.48 0.52 0.60 0.60 0.59 0.56 0.49 0.44 0.43 0.41 0.38 0.36 0.36 0.34 0.31

GEFSNGP_prec_meanprecacc_192.txt.gz
Total_Precipitation_Accumulation
0.12 0.21 0.24 0.24 0.22 0.18 0.14 0.12 0.21 0.25 0.36 0.43 0.43 0.55 0.68 0.80 0.80 0.78 0.65 0.54 0.54 0.51 0.57 0.64 0.67 0.75 0.71 0.68 0.69 0.81 0.99 1.09 1.20 1.20 1.17 1.14 1.15 1.15 1.13 1.22 1.25 1.32 1.36 1.36
0.16 0.19 0.24 0.27 0.25 0.18 0.13 0.11 0.16 0.24 0.37 0.48 0.54 0.62 0.67 0.61 0.55 0.53 0.47 0.36 0.35 0.45 0.52 0.52 0.53 0.58 0.53 0.57 0.67 0.78 0.87 0.97 1.11 1.21 1.20 1.14 1.12 1.14 1.12 1.19 1.25 1.32 1.31 1.37
0.24 0.24 0.24 0.34 0.33 0.24 0.15 0.14 0.20 0.32 0.47 0.61 0.52 0.51 0.57 0.53 0.52 0.51 0.47 0.31 0.26 0.31 0.39 0.42 0.45 0.48 0.58 0.69 0.78 0.87 0.95 1.01 1.13 1.22 1.26 1.24 1.17 1.22 1.23 1.29 1.36 1.37 1.33 1.32
0.30 0.41 0.50 0.37 0.30 0.29 0.28 0.26 0.27 0.40 0.41 0.52 0.52 0.58 0.67 0.63 0.58 0.46 0.40 0.32 0.25 0.25 0.29 0.36 0.44 0.53 0.67 0.89 1.01 1.02 1.06 1.11 1.24 1.33 1.31 1.32 1.33 1.39 1.49 1.56 1.58 1.57 1.52 1.42
0.46 0.58 0.50 0.44 0.32 0.36 0.40 0.53 0.54 0.62 0.58 0.51 0.51 0.58 0.65 0.56 0.48 0.46 0.38 0.35 0.33 0.30 0.38 0.46 0.51 0.56 0.74 0.93 1.12 1.18 1.15 1.19 1.32 1.41 1.45 1.51 1.57 1.58 1.63 1.70 1.66 1.62 1.61 1.65
0.58 0.72 0.71 0.60 0.47 0.46 0.57 0.98 0.81 0.74 0.74 0.61 0.59 0.69 0.72 0.65 0.56 0.51 0.44 0.43 0.43 0.42 0.50 0.61 0.66 0.73 0.87 0.98 1.09 1.23 1.29 1.40 1.55 1.71 1.74 1.79 1.94 2.01 1.93 1.86 1.74 1.78 1.78 1.79
0.73 0.78 0.84 0.72 0.66 0.68 1.05 1.31 0.99 0.84 0.81 0.76 0.84 0.86 0.80 0.71 0.68 0.62 0.53 0.52 0.49 0.50 0.59 0.73 0.84 0.93 1.05 1.19 1.28 1.26 1.33 1.48 1.70 1.85 1.93 2.00 2.13 2.21 2.20 2.18 2.15 2.09 2.02 2.01
0.86 1.03 1.19 0.83 0.79 1.16 1.39 1.16 1.16 1.13 1.05 0.93 0.88 0.84 0.78 0.70 0.68 0.63 0.59 0.63 0.62 0.63 0.76 0.90 1.02 1.05 1.14 1.22 1.25 1.29 1.33 1.45 1.58 1.72 1.76 1.84 2.06 2.16 2.24 2.27 2.24 2.16 2.10 1.98
1.11 1.23 1.13 0.91 0.97 1.14 1.25 1.39 1.32 1.23 1.21 1.05 0.98 0.89 0.78 0.69 0.64 0.60 0.57 0.62 0.65 0.70 0.89 1.07 1.19 1.23 1.29 1.22 1.29 1.34 1.40 1.53 1.65 1.74 1.81 1.90 1.95 1.94 2.03 2.11 2.11 2.04 2.02 1.96
1.24 1.28 1.18 1.02 0.89 0.84 0.98 1.10 1.07 1.03 1.05 1.03 1.00 0.92 0.81 0.68 0.57 0.55 0.54 0.50 0.54 0.65 0.75 0.86 0.96 1.06 1.19 1.28 1.36 1.42 1.49 1.54 1.61 1.73 1.76 1.79 1.90 1.98 2.04 2.15 2.24 2.15 2.04 1.96
1.45 1.32 1.14 1.20 1.12 1.00 1.05 1.13 1.06 0.98 0.93 0.93 0.91 0.87 0.73 0.66 0.59 0.53 0.51 0.50 0.53 0.63 0.67 0.74 0.81 0.88 0.98 1.08 1.21 1.30 1.37 1.43 1.49 1.53 1.61 1.68 1.73 1.81 1.82 1.90 1.89 1.86 1.81 1.80
1.65 1.44 1.31 1.30 1.17 1.05 1.10 1.08 1.11 1.12 1.09 0.90 0.80 0.84 0.77 0.69 0.60 0.58 0.57 0.56 0.59 0.62 0.63 0.67 0.72 0.85 0.96 1.06 1.20 1.34 1.44 1.46 1.41 1.39 1.45 1.50 1.53 1.52 1.49 1.42 1.39 1.35 1.35 1.35
1.27 1.13 1.14 1.16 1.12 1.00 1.01 0.96 0.94 0.97 0.97 0.88 0.82 0.76 0.76 0.72 0.66 0.60 0.54 0.54 0.58 0.62 0.62 0.64 0.68 0.79 0.88 0.98 1.11 1.23 1.32 1.37 1.35 1.34 1.40 1.41 1.43 1.45 1.47 1.40 1.28 1.20 1.17 1.15
1.06 1.01 0.99 0.97 0.94 0.93 0.91 0.85 0.76 0.73 0.74 0.74 0.74 0.74 0.71 0.70 0.67 0.67 0.65 0.60 0.57 0.56 0.56 0.59 0.67 0.72 0.81 0.91 1.02 1.08 1.14 1.20 1.28 1.36 1.41 1.47 1.50 1.54 1.62 1.68 1.61 1.43 1.25 1.15
1.09 0.99 0.91 0.77 0.75 0.79 0.78 0.69 0.61 0.61 0.67 0.70 0.62 0.57 0.56 0.53 0.52 0.55 0.55 0.54 0.54 0.54 0.60 0.63 0.69 0.73 0.81 0.94 1.03 1.04 1.04 1.05 1.07 1.14 1.22 1.30 1.32 1.37 1.47 1.56 1.60 1.50 1.34 1.19
1.16 1.03 0.84 0.70 0.74 0.80 0.75 0.71 0.63 0.56 0.56 0.61 0.59 0.52 0.47 0.45 0.46 0.47 0.48 0.50 0.59 0.64 0.69 0.75 0.81 0.79 0.85 0.95 1.03 1.06 1.01 1.00 0.99 0.99 1.01 1.02 1.04 1.11 1.20 1.31 1.36 1.30 1.20 1.08
1.18 1.11 0.94 0.80 0.74 0.76 0.72 0.70 0.61 0.53 0.47 0.47 0.48 0.44 0.41 0.41 0.41 0.44 0.47 0.49 0.54 0.59 0.66 0.77 0.82 0.82 0.90 0.98 1.01 1.04 0.99 0.96 0.93 0.93 0.91 0.91 0.93 0.97 1.02 1.05 1.11 1.06 0.98 0.85
1.05 0.99 0.91 0.83 0.74 0.72 0.72 0.66 0.61 0.56 0.52 0.49 0.45 0.42 0.43 0.48 0.56 0.59 0.58 0.57 0.57 0.57 0.57 0.62 0.71 0.78 0.90 1.02 1.06 1.03 0.93 0.84 0.78 0.76 0.79 0.82 0.83 0.89 0.94 0.94 0.91 0.86 0.79 0.63
0.90 0.85 0.84 0.81 0.80 0.79 0.76 0.70 0.64 0.59 0.53 0.49 0.48 0.50 0.54 0.58 0.66 0.68 0.65 0.68 0.77 0.80 0.71 0.62 0.67 0.67 0.76 0.93 1.06 1.06 0.95 0.83 0.74 0.70 0.69 0.70 0.72 0.81 0.86 0.83 0.74 0.69 0.63 0.59
0.92 0.93 0.96 0.95 0.91 0.89 0.82 0.73 0.68 0.64 0.56 0.50 0.50 0.54 0.59 0.62 0.68 0.74 0.74 0.72 0.76 0.85 0.84 0.77 0.66 0.60 0.63 0.78 0.99 0.97 0.92 0.84 0.74 0.64 0.65 0.69 0.71 0.76 0.78 0.78 0.72 0.67 0.63 0.61
0.97 1.05 1.06 0.98 0.91 0.83 0.75 0.70 0.67 0.66 0.62 0.60 0.61 0.65 0.70 0.71 0.69 0.77 0.85 0.78 0.67 0.73 0.81 0.80 0.69 0.59 0.58 0.70 0.90 0.93 0.88 0.81 0.70 0.59 0.58 0.62 0.66 0.71 0.75 0.75 0.71 0.64 0.62 0.63
1.09 1.17 1.08 0.92 0.84 0.77 0.68 0.63 0.60 0.58 0.57 0.62 0.67 0.73 0.87 0.93 0.86 0.81 0.74 0.72 0.70 0.79 0.83 0.76 0.68 0.58 0.51 0.57 0.69 0.79 0.77 0.71 0.64 0.56 0.50 0.51 0.57 0.65 0.66 0.66 0.63 0.59 0.58 0.60
1.02 1.02 0.94 0.78 0.68 0.59 0.52 0.51 0.51 0.48 0.49 0.58 0.69 0.85 1.07 1.09 1.01 1.02 0.86 0.65 0.65 0.76 0.77 0.72 0.63 0.53 0.48 0.48 0.56 0.63 0.65 0.64 0.60 0.51 0.42 0.43 0.47 0.51 0.54 0.51 0.52 0.53 0.50 0.45
0.80 0.77 0.68 0.56 0.51 0.49 0.51 0.52 0.48 0.46 0.48 0.55 0.62 0.78 1.05 1.21 1.03 0.80 0.73 0.70 0.69 0.67 0.64 0.64 0.57 0.49 0.46 0.44 0.46 0.54 0.59 0.62 0.58 0.52 0.44 0.44 0.44 0.45 0.49 0.47 0.46 0.43 0.38 0.38
0.74 0.65 0.56 0.51 0.52 0.57 0.60 0.60 0.59 0.56 0.60 0.65 0.63 0.68 0.85 1.07 1.08 0.80 0.64 0.59 0.61 0.59 0.58 0.61 0.61 0.57 0.48 0.41 0.40 0.48 0.54 0.56 0.57 0.52 0.48 0.48 0.45 0.47 0.48 0.45 0.44 0.41 0.40 0.41
0.72 0.65 0.59 0.54 0.54 0.61 0.67 0.74 0.84 0.85 0.92 1.02 0.95 0.85 0.89 0.93 0.86 0.75 0.63 0.54 0.52 0.54 0.53 0.56 0.61 0.63 0.54 0.45 0.45 0.49 0.52 0.57 0.57 0.54 0.52 0.50 0.46 0.44 0.45 0.44 0.44 0.43 0.40 0.37
0.72 0.68 0.66 0.63 0.60 0.64 0.75 0.89 1.03 1.11 1.22 1.38 1.38 1.15 1.03 1.00 0.91 0.80 0.70 0.62 0.60 0.58 0.55 0.53 0.53 0.55 0.56 0.53 0.50 0.49 0.53 0.61 0.61 0.60 0.57 0.50 0.45 0.43 0.41 0.38 0.37 0.36 0.34 0.31

GEFSNGP_prec_meanprecacc_198.txt.gz
Total_Precipitation_Accumulation
0.12 0.21 0.24 0.24 0.22 0.18 0.14 0.12 0.21 0.25 0.37 0.44 0.46 0.57 0.74 0.87 0.86 0.82 0.66 0.57 0.58 0.54 0.62 0.69 0.69 0.78 0.75 0.73 0.78 0.91 1.09 1.19 1.29 1.29 1.27 1.26 1.27 1.26 1.24 1.33 1.37 1.44 1.49 1.50
0.16 0.19 0.24 0.27 0.25 0.18 0.13 0.11 0.16 0.24 0.37 0.49 0.56 0.65 0.71 0.64 0.58 0.55 0.49 0.38 0.37 0.48 0.54 0.56 0.55 0.60 0.56 0.61 0.74 0.88 0.98 1.07 1.23 1.34 1.34 1.29 1.26 1.26 1.25 1.30 1.36 1.43 1.43 1.48
0.25 0.24 0.25 0.34 0.33 0.24 0.15 0.14 0.20 0.32 0.48 0.64 0.54 0.54 0.59 0.55 0.54 0.54 0.49 0.34 0.29 0.35 0.43 0.47 0.50 0.51 0.60 0.73 0.85 0.95 1.07 1.16 1.29 1.35 1.40 1.40 1.34 1.40 1.37 1.41 1.49 1.48 1.43 1.41
0.31 0.42 0.51 0.37 0.30 0.29 0.28 0.26 0.27 0.40 0.42 0.55 0.56 0.61 0.71 0.67 0.63 0.51 0.47 0.37 0.32 0.32 0.35 0.42 0.48 0.56 0.70 0.96 1.15 1.15 1.26 1.34 1.44 1.51 1.50 1.51 1.52 1.54 1.60 1.67 1.69 1.66 1.59 1.49
0.46 0.60 0.51 0.44 0.32 0.36 0.40 0.54 0.55 0.63 0.60 0.54 0.55 0.64 0.69 0.58 0.51 0.51 0.44 0.40 0.39 0.36 0.42 0.51 0.55 0.59 0.78 0.99 1.20 1.30 1.33 1.39 1.49 1.55 1.61 1.69 1.74 1.70 1.74 1.80 1.76 1.71 1.68 1.71
0.58 0.73 0.72 0.61 0.47 0.46 0.57 1.01 0.83 0.76 0.78 0.65 0.60 0.72 0.76 0.70 0.62 0.56 0.51 0.49 0.49 0.48 0.56 0.68 0.74 0.78 0.91 1.03 1.15 1.31 1.37 1.48 1.63 1.80 1.83 1.89 2.03 2.09 2.01 1.93 1.82 1.86 1.86 1.86
0.73 0.79 0.85 0.73 0.67 0.68 1.07 1.35 1.02 0.86 0.83 0.79 0.87 0.87 0.82 0.73 0.72 0.67 0.57 0.56 0.54 0.55 0.64 0.79 0.89 0.99 1.11 1.24 1.33 1.32 1.38 1.52 1.75 1.91 1.99 2.04 2.18 2.26 2.25 2.22 2.18 2.13 2.07 2.07
0.87 1.06 1.21 0.85 0.81 1.19 1.44 1.21 1.20 1.16 1.07 0.96 0.93 0.87 0.80 0.72 0.71 0.65 0.62 0.66 0.66 0.68 0.81 0.96 1.09 1.13 1.20 1.26 1.29 1.31 1.35 1.48 1.61 1.76 1.79 1.87 2.08 2.19 2.26 2.29 2.26 2.19 2.12 2.00
1.15 1.27 1.17 0.98 1.06 1.21 1.32 1.47 1.40 1.28 1.24 1.08 1.03 0.92 0.81 0.71 0.67 0.64 0.62 0.67 0.70 0.76 0.95 1.13 1.28 1.34 1.39 1.28 1.33 1.37 1.43 1.55 1.68 1.76 1.83 1.92 1.97 1.96 2.04 2.13 2.13 2.05 2.04 1.97
1.30 1.36 1.28 1.14 1.00 0.93 1.06 1.17 1.15 1.13 1.10 1.05 1.02 0.95 0.84 0.71 0.62 0.60 0.59 0.55 0.60 0.69 0.79 0.90 1.09 1.25 1.34 1.37 1.41 1.46 1.52 1.56 1.63 1.74 1.77 1.80 1.91 1.98 2.05 2.16 2.26 2.17 2.06 1.97
1.51 1.42 1.31 1.33 1.21 1.08 1.14 1.20 1.12 1.05 1.00 0.97 0.93 0.89 0.75 0.68 0.62 0.59 0.57 0.55 0.59 0.67 0.70 0.77 0.85 0.95 1.04 1.13 1.25 1.32 1.38 1.44 1.50 1.53 1.61 1.68 1.73 1.82 1.83 1.91 1.91 1.89 1.84 1.82
1.78 1.55 1.39 1.39 1.30 1.17 1.20 1.16 1.20 1.24 1.20 0.97 0.85 0.87 0.81 0.72 0.63 0.61 0.60 0.60 0.63 0.66 0.66 0.71 0.75 0.89 0.99 1.08 1.22 1.36 1.46 1.49 1.43 1.40 1.45 1.50 1.53 1.52 1.50 1.43 1.40 1.37 1.38 1.38
1.40 1.26 1.23 1.23 1.22 1.15 1.15 1.07 1.04 1.07 1.06 0.95 0.87 0.82 0.84 0.78 0.70 0.63 0.58 0.57 0.61 0.66 0.66 0.67 0.71 0.81 0.90 1.00 1.12 1.25 1.34 1.39 1.36 1.35 1.41 1.41 1.43 1.46 1.48 1.41 1.29 1.21 1.19 1.17
1.20 1.13 1.10 1.07 1.06 1.06 1.07 1.01 0.88 0.83 0.85 0.84 0.83 0.83 0.84 0.83 0.74 0.71 0.69 0.64 0.61 0.61 0.61 0.63 0.70 0.75 0.82 0.92 1.03 1.10 1.15 1.21 1.29 1.37 1.42 1.47 1.51 1.55 1.63 1.70 1.63 1.45 1.28 1.18
1.24 1.13 1.02 0.85 0.86 0.92 0.91 0.85 0.75 0.70 0.77 0.86 0.78 0.72 0.72 0.64 0.59 0.60 0.59 0.59 0.59 0.60 0.65 0.67 0.72 0.76 0.83 0.95 1.04 1.04 1.04 1.06 1.08 1.15 1.22 1.30 1.32 1.38 1.47 1.57 1.61 1.51 1.36 1.22
1.32 1.17 0.97 0.80 0.83 0.90 0.87 0.83 0.72 0.63 0.62 0.67 0.67 0.59 0.55 0.53 0.52 0.52 0.54 0.57 0.65 0.69 0.73 0.77 0.84 0.81 0.87 0.96 1.04 1.07 1.01 1.01 0.99 1.00 1.01 1.02 1.04 1.11 1.20 1.31 1.37 1.31 1.21 1.09
1.30 1.21 1.03 0.87 0.81 0.81 0.78 0.77 0.67 0.59 0.52 0.52 0.54 0.51 0.49 0.50 0.49 0.50 0.52 0.55 0.61 0.65 0.71 0.79 0.85 0.85 0.92 0.99 1.02 1.04 1.00 0.96 0.94 0.93 0.91 0.91 0.93 0.98 1.02 1.06 1.11 1.07 0.99 0.86
1.19 1.09 0.96 0.87 0.78 0.76 0.76 0.71 0.65 0.61 0.57 0.54 0.50 0.48 0.50 0.55 0.64 0.66 0.64 0.63 0.62 0.61 0.60 0.65 0.73 0.80 0.91 1.03 1.07 1.04 0.93 0.84 0.78 0.77 0.80 0.83 0.85 0.90 0.95 0.95 0.92 0.87 0.80 0.64
1.04 0.98 0.90 0.86 0.84 0.82 0.80 0.74 0.68 0.64 0.57 0.53 0.53 0.55 0.58 0.63 0.71 0.73 0.70 0.72 0.80 0.83 0.72 0.64 0.68 0.68 0.77 0.94 1.06 1.07 0.96 0.84 0.76 0.71 0.70 0.71 0.74 0.82 0.87 0.83 0.75 0.70 0.64 0.60
1.04 1.08 1.05 1.01 0.95 0.92 0.85 0.76 0.71 0.67 0.59 0.54 0.54 0.57 0.63 0.66 0.73 0.79 0.78 0.75 0.78 0.86 0.86 0.78 0.67 0.61 0.64 0.79 1.00 0.99 0.93 0.87 0.77 0.67 0.66 0.70 0.72 0.77 0.79 0.78 0.72 0.67 0.64 0.61
1.07 1.17 1.15 1.03 0.95 0.86 0.78 0.72 0.69 0.69 0.65 0.63 0.64 0.67 0.72 0.74 0.73 0.81 0.89 0.81 0.70 0.75 0.83 0.81 0.70 0.60 0.59 0.71 0.91 0.95 0.90 0.84 0.74 0.63 0.60 0.63 0.67 0.73 0.77 0.77 0.72 0.66 0.63 0.64
1.19 1.25 1.15 0.96 0.87 0.79 0.70 0.65 0.63 0.60 0.60 0.65 0.70 0.75 0.89 0.95 0.89 0.84 0.77 0.74 0.72 0.81 0.85 0.77 0.69 0.59 0.52 0.58 0.69 0.80 0.79 0.73 0.66 0.59 0.53 0.53 0.59 0.67 0.69 0.68 0.66 0.62 0.60 0.61
1.10 1.08 0.99 0.81 0.70 0.61 0.53 0.53 0.53 0.51 0.52 0.61 0.73 0.88 1.09 1.11 1.04 1.05 0.89 0.67 0.67 0.77 0.78 0.73 0.64 0.55 0.49 0.49 0.56 0.64 0.66 0.65 0.61 0.52 0.44 0.45 0.49 0.53 0.55 0.52 0.53 0.54 0.50 0.46
0.87 0.82 0.71 0.58 0.52 0.50 0.52 0.54 0.52 0.50 0.53 0.59 0.65 0.81 1.08 1.24 1.06 0.82 0.75 0.72 0.70 0.68 0.65 0.64 0.58 0.50 0.48 0.45 0.47 0.54 0.59 0.62 0.58 0.52 0.44 0.44 0.45 0.46 0.49 0.48 0.47 0.43 0.38 0.39
0.81 0.70 0.59 0.53 0.54 0.59 0.62 0.63 0.63 0.62 0.65 0.69 0.67 0.71 0.87 1.09 1.10 0.82 0.65 0.60 0.61 0.60 0.58 0.61 0.62 0.58 0.49 0.42 0.41 0.49 0.55 0.58 0.58 0.54 0.49 0.48 0.45 0.48 0.48 0.46 0.44 0.41 0.40 0.41
0.78 0.71 0.63 0.57 0.56 0.63 0.70 0.78 0.88 0.90 0.97 1.06 0.97 0.87 0.91 0.95 0.88 0.76 0.64 0.55 0.53 0.55 0.53 0.57 0.62 0.64 0.55 0.46 0.46 0.50 0.53 0.59 0.59 0.56 0.53 0.51 0.47 0.45 0.46 0.44 0.44 0.43 0.40 0.38
0.80 0.74 0.71 0.67 0.64 0.68 0.78 0.92 1.07 1.15 1.27 1.41 1.40 1.16 1.05 1.01 0.91 0.80 0.71 0.63 0.60 0.59 0.56 0.54 0.54 0.56 0.57 0.55 0.51 0.50 0.54 0.62 0.62 0.61 0.59 0.51 0.46 0.44 0.42 0.39 0.37 0.37 0.35 0.32

GEFSNGP_prec_meanprecacc_204.txt.gz
Total_Precipitation_Accumulation
0.12 0.21 0.24 0.24 0.22 0.18 0.15 0.12 0.21 0.25 0.37 0.45 0.47 0.58 0.75 0.88 0.87 0.83 0.68 0.58 0.61 0.58 0.65 0.71 0.71 0.80 0.77 0.76 0.81 0.94 1.12 1.21 1.33 1.34 1.34 1.34 1.37 1.38 1.34 1.42 1.47 1.55 1.59 1.61
0.16 0.19 0.24 0.27 0.25 0.18 0.13 0.11 0.16 0.24 0.37 0.49 0.56 0.65 0.71 0.64 0.58 0.56 0.50 0.39 0.38 0.49 0.56 0.57 0.57 0.61 0.57 0.63 0.76 0.90 1.00 1.11 1.30 1.42 1.45 1.40 1.36 1.39 1.41 1.43 1.48 1.54 1.53 1.58
0.25 0.24 0.25 0.34 0.33 0.24 0.15 0.14 0.20 0.32 0.48 0.64 0.55 0.54 0.59 0.56 0.55 0.54 0.50 0.34 0.29 0.36 0.44 0.48 0.51 0.52 0.62 0.74 0.87 0.98 1.12 1.25 1.42 1.46 1.50 1.50 1.42 1.48 1.46 1.53 1.61 1.57 1.52 1.50
0.31 0.42 0.51 0.37 0.30 0.29 0.28 0.26 0.27 0.40 0.42 0.56 0.56 0.61 0.71 0.68 0.63 0.52 0.47 0.37 0.33 0.33 0.37 0.43 0.50 0.58 0.72 0.98 1.17 1.20 1.34 1.52 1.60 1.65 1.61 1.60 1.61 1.63 1.68 1.76 1.78 1.73 1.65 1.55
0.46 0.60 0.52 0.44 0.32 0.36 0.40 0.54 0.55 0.63 0.61 0.55 0.55 0.65 0.70 0.59 0.52 0.52 0.44 0.41 0.41 0.39 0.45 0.53 0.57 0.61 0.81 1.03 1.25 1.36 1.42 1.56 1.70 1.78 1.77 1.79 1.81 1.76 1.80 1.89 1.86 1.79 1.75 1.76
0.58 0.73 0.73 0.61 0.48 0.47 0.58 1.01 0.84 0.77 0.79 0.66 0.61 0.72 0.77 0.70 0.63 0.57 0.52 0.49 0.50 0.50 0.58 0.71 0.78 0.81 0.95 1.08 1.21 1.38 1.45 1.56 1.71 1.87 1.90 1.94 2.09 2.15 2.08 2.03 1.94 1.98 1.97 1.96
0.73 0.80 0.86 0.74 0.68 0.70 1.09 1.36 1.04 0.87 0.84 0.79 0.88 0.88 0.83 0.74 0.73 0.67 0.57 0.57 0.55 0.57 0.65 0.81 0.92 1.02 1.14 1.28 1.40 1.40 1.46 1.59 1.79 1.94 2.02 2.08 2.22 2.31 2.29 2.26 2.24 2.18 2.12 2.14
0.88 1.06 1.22 0.86 0.82 1.21 1.46 1.23 1.22 1.18 1.09 0.98 0.95 0.89 0.82 0.73 0.72 0.66 0.64 0.68 0.67 0.70 0.84 1.00 1.13 1.16 1.25 1.32 1.36 1.38 1.40 1.51 1.63 1.78 1.82 1.90 2.12 2.22 2.29 2.32 2.29 2.20 2.14 2.03
1.15 1.27 1.17 0.99 1.07 1.23 1.34 1.50 1.43 1.31 1.29 1.11 1.06 0.95 0.83 0.73 0.69 0.65 0.63 0.69 0.72 0.78 0.98 1.16 1.32 1.38 1.44 1.34 1.38 1.41 1.46 1.58 1.71 1.78 1.85 1.94 1.99 1.98 2.06 2.15 2.15 2.06 2.05 1.98
1.31 1.36 1.29 1.15 1.02 0.95 1.08 1.19 1.18 1.17 1.16 1.11 1.07 0.99 0.87 0.74 0.64 0.62 0.61 0.58 0.63 0.72 0.83 0.93 1.12 1.29 1.39 1.42 1.47 1.49 1.54 1.58 1.65 1.75 1.78 1.81 1.92 2.00 2.06 2.17 2.27 2.18 2.07 1.98
1.51 1.43 1.32 1.34 1.23 1.10 1.16 1.22 1.15 1.09 1.05 1.05 1.01 0.95 0.80 0.72 0.66 0.62 0.60 0.59 0.63 0.72 0.74 0.81 0.88 0.99 1.07 1.16 1.27 1.34 1.40 1.46 1.51 1.54 1.62 1.69 1.74 1.82 1.84 1.92 1.92 1.91 1.85 1.83
1.78 1.56 1.40 1.41 1.31 1.18 1.23 1.18 1.23 1.30 1.27 1.04 0.92 0.94 0.87 0.77 0.67 0.65 0.65 0.64 0.67 0.70 0.70 0.74 0.78 0.91 1.01 1.10 1.24 1.38 1.47 1.50 1.44 1.41 1.46 1.50 1.53 1.52 1.51 1.44 1.41 1.38 1.39 1.39
1.42 1.27 1.24 1.25 1.24 1.17 1.17 1.11 1.09 1.14 1.13 1.01 0.94 0.88 0.89 0.82 0.74 0.68 0.63 0.62 0.65 0.69 0.69 0.70 0.74 0.84 0.93 1.02 1.14 1.26 1.36 1.40 1.37 1.36 1.41 1.42 1.43 1.46 1.49 1.41 1.30 1.22 1.19 1.18
1.22 1.15 1.13 1.11 1.08 1.09 1.10 1.04 0.92 0.88 0.93 0.92 0.92 0.91 0.90 0.88 0.80 0.77 0.74 0.69 0.64 0.63 0.63 0.65 0.72 0.77 0.85 0.95 1.04 1.11 1.16 1.22 1.30 1.38 1.42 1.48 1.51 1.55 1.63 1.70 1.63 1.45 1.28 1.19
1.28 1.16 1.05 0.88 0.90 0.97 0.96 0.90 0.80 0.75 0.84 0.96 0.88 0.82 0.80 0.71 0.67 0.68 0.65 0.63 0.63 0.63 0.67 0.68 0.74 0.78 0.86 0.98 1.06 1.06 1.06 1.07 1.09 1.16 1.23 1.31 1.33 1.39 1.48 1.57 1.61 1.51 1.36 1.22
1.36 1.21 1.02 0.85 0.88 0.97 0.96 0.93 0.84 0.72 0.70 0.78 0.78 0.69 0.63 0.59 0.58 0.60 0.59 0.61 0.70 0.74 0.76 0.79 0.85 0.83 0.89 0.99 1.05 1.08 1.03 1.02 1.01 1.01 1.02 1.02 1.05 1.12 1.21 1.31 1.37 1.31 1.21 1.09
1.35 1.26 1.09 0.94 0.87 0.87 0.87 0.89 0.83 0.71 0.62 0.62 0.63 0.60 0.57 0.56 0.54 0.55 0.56 0.59 0.65 0.69 0.74 0.82 0.88 0.87 0.94 1.01 1.04 1.06 1.01 0.97 0.95 0.94 0.92 0.92 0.94 0.98 1.02 1.06 1.12 1.07 0.99 0.86
1.24 1.14 1.02 0.93 0.84 0.81 0.82 0.79 0.76 0.73 0.67 0.63 0.59 0.57 0.58 0.62 0.69 0.71 0.68 0.67 0.66 0.64 0.62 0.67 0.76 0.83 0.93 1.04 1.08 1.05 0.94 0.85 0.79 0.77 0.81 0.84 0.86 0.92 0.97 0.97 0.94 0.90 0.82 0.67
1.10 1.03 0.96 0.93 0.91 0.87 0.85 0.80 0.76 0.74 0.67 0.62 0.62 0.65 0.66 0.69 0.76 0.78 0.75 0.76 0.83 0.86 0.75 0.67 0.71 0.71 0.79 0.95 1.08 1.08 0.97 0.85 0.76 0.71 0.71 0.72 0.75 0.83 0.89 0.87 0.79 0.73 0.67 0.61
1.10 1.13 1.11 1.08 1.02 0.98 0.91 0.82 0.76 0.74 0.68 0.63 0.63 0.66 0.71 0.74 0.79 0.83 0.83 0.79 0.81 0.89 0.88 0.81 0.70 0.63 0.66 0.80 1.01 0.99 0.94 0.88 0.79 0.68 0.68 0.72 0.75 0.79 0.81 0.80 0.74 0.69 0.65 0.62
1.13 1.23 1.20 1.10 1.02 0.91 0.82 0.76 0.75 0.74 0.70 0.69 0.70 0.72 0.77 0.79 0.78 0.85 0.92 0.84 0.72 0.78 0.85 0.83 0.72 0.62 0.61 0.72 0.92 0.96 0.91 0.85 0.76 0.65 0.61 0.65 0.69 0.74 0.78 0.78 0.73 0.66 0.64 0.65
1.26 1.34 1.22 1.03 0.94 0.85 0.73 0.68 0.66 0.63 0.62 0.67 0.73 0.78 0.92 0.98 0.92 0.88 0.80 0.77 0.75 0.84 0.86 0.79 0.70 0.60 0.54 0.59 0.70 0.81 0.80 0.74 0.67 0.60 0.54 0.54 0.60 0.68 0.69 0.69 0.66 0.62 0.61 0.62
1.19 1.17 1.07 0.88 0.77 0.67 0.57 0.55 0.55 0.53 0.54 0.63 0.74 0.90 1.12 1.14 1.07 1.08 0.93 0.70 0.69 0.79 0.79 0.74 0.66 0.56 0.50 0.50 0.57 0.64 0.67 0.66 0.62 0.54 0.45 0.46 0.50 0.54 0.57 0.53 0.54 0.55 0.51 0.46
0.98 0.91 0.79 0.65 0.59 0.57 0.57 0.56 0.54 0.52 0.54 0.61 0.67 0.82 1.10 1.26 1.09 0.87 0.81 0.77 0.74 0.70 0.67 0.66 0.59 0.52 0.49 0.46 0.49 0.56 0.61 0.64 0.60 0.54 0.46 0.47 0.47 0.48 0.51 0.49 0.48 0.45 0.40 0.40
0.94 0.79 0.65 0.59 0.60 0.65 0.67 0.67 0.65 0.64 0.67 0.70 0.68 0.72 0.88 1.11 1.13 0.86 0.69 0.63 0.64 0.62 0.60 0.63 0.63 0.60 0.50 0.43 0.42 0.51 0.57 0.60 0.61 0.56 0.52 0.52 0.48 0.50 0.51 0.48 0.46 0.43 0.42 0.42
0.88 0.78 0.68 0.61 0.60 0.67 0.74 0.80 0.90 0.91 0.98 1.07 0.99 0.89 0.92 0.96 0.89 0.78 0.67 0.57 0.55 0.57 0.55 0.58 0.63 0.66 0.56 0.47 0.47 0.52 0.56 0.62 0.62 0.59 0.57 0.55 0.51 0.50 0.50 0.48 0.47 0.45 0.42 0.39
0.88 0.79 0.75 0.70 0.66 0.70 0.80 0.93 1.08 1.16 1.28 1.43 1.42 1.18 1.06 1.04 0.94 0.84 0.73 0.65 0.62 0.60 0.57 0.55 0.55 0.57 0.58 0.56 0.53 0.53 0.57 0.65 0.65 0.65 0.62 0.56 0.51 0.50 0.48 0.44 0.40 0.40 0.37 0.33

GEFSNGP_prec_meanprecacc_210.txt.gz
Total_Precipitation_Accumulation
0.12 0.21 0.24 0.24 0.22 0.18 0.15 0.12 0.21 0.25 0.37 0.45 0.47 0.58 0.75 0.88 0.88 0.84 0.69 0.58 0.61 0.59 0.65 0.71 0.72 0.80 0.77 0.76 0.82 0.96 1.13 1.24 1.37 1.37 1.36 1.36 1.39 1.40 1.36 1.45 1.49 1.57 1.63 1.65
0.16 0.19 0.24 0.27 0.25 0.18 0.13 0.11 0.16 0.24 0.37 0.49 0.56 0.65 0.71 0.65 0.59 0.57 0.51 0.40 0.39 0.50 0.57 0.58 0.58 0.62 0.58 0.63 0.76 0.91 1.02 1.13 1.33 1.45 1.48 1.45 1.41 1.44 1.45 1.48 1.53 1.58 1.56 1.61
0.25 0.24 0.25 0.34 0.33 0.24 0.15 0.14 0.20 0.32 0.48 0.64 0.55 0.54 0.60 0.56 0.55 0.54 0.50 0.34 0.30 0.36 0.46 0.50 0.52 0.53 0.62 0.75 0.87 0.99 1.13 1.28 1.46 1.54 1.61 1.61 1.49 1.51 1.49 1.56 1.65 1.62 1.57 1.56
0.31 0.42 0.51 0.37 0.30 0.29 0.28 0.26 0.28 0.40 0.42 0.56 0.56 0.61 0.71 0.68 0.63 0.52 0.47 0.37 0.33 0.34 0.38 0.44 0.51 0.58 0.72 0.98 1.18 1.21 1.36 1.55 1.65 1.74 1.69 1.66 1.64 1.66 1.72 1.80 1.83 1.80 1.73 1.66
0.46 0.60 0.52 0.44 0.32 0.36 0.40 0.54 0.55 0.63 0.61 0.55 0.55 0.65 0.70 0.59 0.52 0.52 0.44 0.41 0.41 0.40 0.45 0.54 0.58 0.62 0.81 1.03 1.26 1.38 1.44 1.59 1.75 1.84 1.85 1.85 1.87 1.82 1.85 1.93 1.90 1.86 1.83 1.86
0.59 0.73 0.73 0.61 0.48 0.47 0.58 1.02 0.85 0.78 0.80 0.67 0.62 0.73 0.77 0.71 0.63 0.57 0.52 0.50 0.50 0.50 0.59 0.71 0.78 0.82 0.95 1.08 1.22 1.39 1.48 1.60 1.76 1.95 1.98 2.02 2.14 2.20 2.11 2.06 1.97 2.02 2.03 2.03
0.73 0.80 0.86 0.74 0.68 0.71 1.10 1.37 1.05 0.88 0.84 0.80 0.89 0.89 0.84 0.74 0.73 0.68 0.58 0.57 0.55 0.57 0.65 0.81 0.93 1.03 1.15 1.29 1.41 1.43 1.49 1.61 1.81 1.96 2.04 2.10 2.24 2.32 2.31 2.29 2.27 2.21 2.15 2.18
0.88 1.06 1.22 0.86 0.83 1.22 1.48 1.24 1.23 1.18 1.09 0.98 0.95 0.90 0.83 0.75 0.72 0.67 0.64 0.69 0.68 0.70 0.84 1.00 1.13 1.17 1.25 1.33 1.37 1.40 1.42 1.53 1.65 1.80 1.84 1.92 2.14 2.23 2.31 2.34 2.31 2.22 2.15 2.04
1.15 1.27 1.17 0.99 1.07 1.23 1.37 1.53 1.44 1.31 1.29 1.12 1.07 0.96 0.86 0.76 0.71 0.67 0.65 0.70 0.74 0.79 0.99 1.18 1.33 1.39 1.45 1.35 1.40 1.42 1.47 1.59 1.72 1.80 1.86 1.96 2.00 2.00 2.08 2.17 2.16 2.08 2.06 1.99
1.31 1.36 1.29 1.15 1.02 0.95 1.09 1.20 1.19 1.18 1.17 1.12 1.08 1.01 0.90 0.76 0.66 0.63 0.64 0.61 0.66 0.74 0.85 0.96 1.15 1.31 1.40 1.43 1.47 1.50 1.54 1.59 1.66 1.77 1.79 1.82 1.93 2.01 2.07 2.18 2.28 2.19 2.08 1.99
1.52 1.44 1.33 1.34 1.24 1.10 1.16 1.23 1.15 1.10 1.06 1.06 1.04 0.98 0.83 0.75 0.67 0.63 0.61 0.61 0.65 0.74 0.76 0.82 0.90 1.00 1.08 1.16 1.28 1.35 1.40 1.46 1.51 1.54 1.63 1.70 1.75 1.83 1.85 1.93 1.93 1.91 1.86 1.84
1.79 1.56 1.41 1.41 1.32 1.20 1.23 1.19 1.24 1.30 1.28 1.07 0.95 0.97 0.89 0.78 0.68 0.67 0.66 0.66 0.69 0.72 0.73 0.76 0.79 0.93 1.03 1.11 1.25 1.38 1.48 1.51 1.44 1.42 1.47 1.51 1.54 1.53 1.52 1.45 1.43 1.39 1.40 1.40
1.42 1.27 1.25 1.25 1.24 1.17 1.18 1.11 1.10 1.14 1.14 1.04 0.97 0.92 0.94 0.87 0.76 0.70 0.65 0.63 0.68 0.72 0.71 0.72 0.75 0.86 0.95 1.04 1.16 1.27 1.37 1.41 1.39 1.37 1.43 1.43 1.44 1.46 1.49 1.42 1.30 1.22 1.20 1.18
1.23 1.16 1.13 1.11 1.09 1.09 1.10 1.05 0.93 0.90 0.94 0.95 0.96 0.96 0.99 0.94 0.83 0.80 0.77 0.71 0.67 0.66 0.64 0.66 0.73 0.78 0.87 0.96 1.06 1.12 1.18 1.23 1.31 1.39 1.43 1.49 1.52 1.55 1.63 1.70 1.63 1.45 1.28 1.19
1.30 1.17 1.06 0.89 0.91 0.98 0.96 0.91 0.81 0.77 0.86 0.98 0.91 0.88 0.85 0.75 0.69 0.71 0.68 0.66 0.66 0.66 0.69 0.70 0.76 0.80 0.88 1.00 1.07 1.08 1.07 1.09 1.11 1.18 1.24 1.31 1.34 1.40 1.48 1.58 1.61 1.51 1.36 1.22
1.38 1.22 1.03 0.86 0.89 0.99 0.98 0.94 0.85 0.74 0.71 0.80 0.82 0.74 0.68 0.64 0.61 0.62 0.62 0.64 0.74 0.78 0.81 0.84 0.90 0.86 0.92 1.01 1.07 1.10 1.05 1.04 1.02 1.02 1.03 1.03 1.05 1.13 1.22 1.32 1.37 1.31 1.21 1.10
1.37 1.28 1.11 0.96 0.89 0.89 0.88 0.90 0.84 0.73 0.63 0.64 0.66 0.65 0.62 0.60 0.57 0.57 0.58 0.61 0.67 0.73 0.80 0.89 0.97 0.96 1.02 1.07 1.09 1.08 1.03 0.98 0.96 0.95 0.93 0.93 0.95 0.99 1.03 1.07 1.12 1.07 0.99 0.87
1.25 1.15 1.04 0.95 0.86 0.83 0.83 0.80 0.77 0.74 0.68 0.65 0.61 0.60 0.63 0.67 0.72 0.73 0.70 0.69 0.68 0.67 0.65 0.70 0.80 0.87 0.97 1.09 1.12 1.08 0.96 0.86 0.80 0.78 0.82 0.85 0.87 0.93 0.98 0.98 0.95 0.91 0.84 0.70
1.12 1.05 0.98 0.94 0.92 0.89 0.86 0.81 0.78 0.76 0.69 0.64 0.65 0.68 0.70 0.73 0.79 0.81 0.76 0.78 0.86 0.89 0.78 0.69 0.75 0.74 0.81 0.97 1.10 1.11 0.98 0.86 0.78 0.72 0.72 0.74 0.76 0.85 0.90 0.87 0.79 0.74 0.68 0.63
1.12 1.14 1.12 1.10 1.04 1.00 0.92 0.83 0.79 0.77 0.72 0.67 0.67 0.69 0.74 0.76 0.82 0.86 0.86 0.82 0.83 0.92 0.91 0.83 0.73 0.66 0.68 0.82 1.03 1.01 0.96 0.89 0.79 0.69 0.69 0.74 0.77 0.81 0.83 0.81 0.75 0.69 0.65 0.63
1.14 1.24 1.22 1.13 1.05 0.94 0.84 0.79 0.78 0.78 0.74 0.73 0.74 0.75 0.80 0.82 0.80 0.88 0.97 0.88 0.75 0.80 0.89 0.86 0.74 0.64 0.62 0.74 0.93 0.97 0.92 0.86 0.77 0.65 0.62 0.66 0.70 0.75 0.79 0.79 0.74 0.67 0.64 0.65
1.28 1.36 1.24 1.07 1.00 0.89 0.77 0.72 0.70 0.66 0.66 0.72 0.78 0.81 0.94 1.00 0.94 0.91 0.84 0.80 0.78 0.88 0.90 0.82 0.72 0.62 0.56 0.61 0.72 0.82 0.81 0.75 0.68 0.61 0.55 0.55 0.61 0.68 0.70 0.69 0.67 0.63 0.61 0.62
1.22 1.20 1.10 0.92 0.86 0.75 0.61 0.59 0.58 0.55 0.57 0.66 0.79 0.94 1.15 1.17 1.09 1.12 0.96 0.73 0.72 0.83 0.83 0.78 0.70 0.60 0.53 0.52 0.58 0.65 0.68 0.68 0.64 0.55 0.46 0.47 0.51 0.55 0.58 0.54 0.55 0.55 0.52 0.47
1.02 0.94 0.82 0.69 0.65 0.63 0.62 0.60 0.57 0.55 0.57 0.63 0.70 0.86 1.13 1.29 1.12 0.90 0.84 0.80 0.77 0.73 0.69 0.69 0.64 0.56 0.52 0.48 0.51 0.57 0.63 0.66 0.62 0.56 0.48 0.48 0.49 0.50 0.53 0.50 0.49 0.46 0.40 0.40
0.99 0.83 0.69 0.62 0.65 0.71 0.72 0.71 0.68 0.66 0.70 0.74 0.71 0.75 0.91 1.15 1.17 0.89 0.71 0.65 0.66 0.65 0.63 0.66 0.66 0.62 0.53 0.45 0.44 0.52 0.59 0.62 0.63 0.58 0.54 0.54 0.51 0.53 0.54 0.50 0.48 0.45 0.44 0.44
0.95 0.83 0.73 0.65 0.65 0.73 0.79 0.85 0.94 0.94 1.02 1.10 1.03 0.92 0.95 1.00 0.93 0.81 0.69 0.59 0.57 0.60 0.57 0.61 0.65 0.67 0.57 0.49 0.49 0.54 0.59 0.64 0.65 0.62 0.60 0.58 0.54 0.53 0.53 0.52 0.51 0.49 0.46 0.43
0.95 0.85 0.79 0.74 0.71 0.76 0.86 0.98 1.12 1.20 1.31 1.46 1.45 1.20 1.08 1.05 0.96 0.85 0.75 0.66 0.64 0.63 0.59 0.57 0.57 0.58 0.59 0.57 0.54 0.54 0.59 0.66 0.66 0.66 0.64 0.58 0.53 0.52 0.51 0.47 0.44 0.44 0.41 0.37